Wetterdaten: Donnerstag, 08.03.2018
Datum Zeit Temp. Aussen Temp. o. S. +5cm Feuchte Auss BlattFeu 1 Luftdruck Regen Sonnenschein Regendauer Solar Windben Empfang
08.03.2018 00:00 4,8 C 4,4 C 3,3 C 95 % 15 lf 998,5 hPa 0,0 l/m 0 min 2 min 0 W/m 20,3 km/h (4 Bft) 93,48 %
08.03.2018 00:02 4,8 C 4,4 C 3,3 C 95 % 15 lf 998,6 hPa 0,0 l/m 0 min 2 min 0 W/m 20,3 km/h (4 Bft) 95,00 %
08.03.2018 00:04 4,8 C 4,4 C 3,3 C 95 % 15 lf 998,7 hPa 0,0 l/m 0 min 2 min 0 W/m 22,5 km/h (4 Bft) 95,74 %
08.03.2018 00:07 4,8 C 4,4 C 3,3 C 95 % 15 lf 998,7 hPa 0,0 l/m 0 min 3 min 0 W/m 18,0 km/h (3 Bft) 95,74 %
08.03.2018 00:08 4,8 C 4,4 C 3,3 C 95 % 15 lf 998,7 hPa 0,0 l/m 0 min 1 min 0 W/m 18,0 km/h (3 Bft) 95,24 %
08.03.2018 00:10 4,8 C 4,4 C 3,3 C 95 % 15 lf 998,7 hPa 0,0 l/m 0 min 2 min 0 W/m 18,0 km/h (3 Bft) 94,44 %
08.03.2018 00:12 4,8 C 4,4 C 3,3 C 95 % 15 lf 998,7 hPa 0,2 l/m 0 min 2 min 0 W/m 13,5 km/h (3 Bft) 93,48 %
08.03.2018 00:14 4,8 C 4,4 C 3,3 C 95 % 15 lf 998,8 hPa 0,0 l/m 0 min 2 min 0 W/m 11,3 km/h (2 Bft) 97,87 %
08.03.2018 00:16 4,8 C 4,4 C 3,3 C 95 % 15 lf 998,8 hPa 0,0 l/m 0 min 2 min 0 W/m 18,0 km/h (3 Bft) 95,74 %
08.03.2018 00:18 4,8 C 4,4 C 3,3 C 95 % 15 lf 998,8 hPa 0,0 l/m 0 min 2 min 0 W/m 13,5 km/h (3 Bft) 95,74 %
08.03.2018 00:20 4,8 C 4,4 C 3,3 C 95 % 15 lf 998,8 hPa 0,0 l/m 0 min 0 min 0 W/m 18,0 km/h (3 Bft) 97,87 %
08.03.2018 00:22 4,8 C 4,4 C 3,3 C 95 % 15 lf 998,9 hPa 0,0 l/m 0 min 0 min 0 W/m 20,3 km/h (4 Bft) 97,87 %
08.03.2018 00:24 4,8 C 4,4 C 3,3 C 96 % 15 lf 998,9 hPa 0,0 l/m 0 min 0 min 0 W/m 15,8 km/h (3 Bft) 95,65 %
08.03.2018 00:26 4,8 C 4,4 C 3,3 C 96 % 15 lf 999,0 hPa 0,0 l/m 0 min 0 min 0 W/m 18,0 km/h (3 Bft) 95,74 %
08.03.2018 00:28 4,9 C 4,4 C 3,3 C 96 % 15 lf 999,0 hPa 0,0 l/m 0 min 0 min 0 W/m 22,5 km/h (4 Bft) 95,74 %
08.03.2018 00:30 4,9 C 4,4 C 3,3 C 96 % 15 lf 999,0 hPa 0,0 l/m 0 min 0 min 0 W/m 22,5 km/h (4 Bft) 97,87 %
08.03.2018 00:32 4,9 C 4,4 C 3,3 C 96 % 15 lf 999,0 hPa 0,0 l/m 0 min 0 min 0 W/m 20,3 km/h (4 Bft) 97,87 %
08.03.2018 00:34 4,9 C 4,4 C 3,3 C 96 % 15 lf 999,0 hPa 0,0 l/m 0 min 0 min 0 W/m 27,0 km/h (4 Bft) 97,87 %
08.03.2018 00:36 4,9 C 4,4 C 3,3 C 96 % 15 lf 999,0 hPa 0,0 l/m 0 min 0 min 0 W/m 31,5 km/h (5 Bft) 97,83 %
08.03.2018 00:38 4,9 C 4,4 C 3,3 C 96 % 15 lf 999,0 hPa 0,0 l/m 0 min 0 min 0 W/m 29,3 km/h (5 Bft) 97,87 %
08.03.2018 00:40 4,9 C 4,4 C 3,3 C 96 % 15 lf 999,1 hPa 0,0 l/m 0 min 0 min 0 W/m 36,0 km/h (5 Bft) 97,87 %
08.03.2018 00:42 4,9 C 4,4 C 3,3 C 96 % 15 lf 999,1 hPa 0,0 l/m 0 min 0 min 0 W/m 27,0 km/h (4 Bft) 97,87 %
08.03.2018 00:44 4,9 C 4,4 C 3,3 C 96 % 15 lf 999,2 hPa 0,0 l/m 0 min 0 min 0 W/m 27,0 km/h (4 Bft) 97,87 %
08.03.2018 00:46 4,9 C 4,4 C 3,3 C 96 % 15 lf 999,2 hPa 0,0 l/m 0 min 0 min 0 W/m 24,8 km/h (4 Bft) 89,36 %
08.03.2018 00:48 4,9 C 4,4 C 3,3 C 96 % 15 lf 999,2 hPa 0,0 l/m 0 min 0 min 0 W/m 22,5 km/h (4 Bft) 95,65 %
08.03.2018 00:50 4,9 C 4,4 C 3,3 C 96 % 15 lf 999,1 hPa 0,0 l/m 0 min 0 min 0 W/m 29,3 km/h (5 Bft) 97,87 %
08.03.2018 00:52 4,9 C 4,4 C 3,3 C 96 % 15 lf 999,2 hPa 0,0 l/m 0 min 0 min 0 W/m 27,0 km/h (4 Bft) 97,87 %
08.03.2018 00:54 4,9 C 4,4 C 3,3 C 96 % 15 lf 999,2 hPa 0,0 l/m 0 min 0 min 0 W/m 24,8 km/h (4 Bft) 97,87 %
08.03.2018 00:56 4,9 C 4,4 C 3,3 C 96 % 15 lf 999,3 hPa 0,0 l/m 0 min 0 min 0 W/m 29,3 km/h (5 Bft) 97,87 %
08.03.2018 00:58 5,0 C 4,4 C 3,3 C 96 % 15 lf 999,3 hPa 0,0 l/m 0 min 0 min 0 W/m 24,8 km/h (4 Bft) 97,87 %
08.03.2018 01:00 5,0 C 4,4 C 3,3 C 96 % 15 lf 999,4 hPa 0,0 l/m 0 min 0 min 0 W/m 24,8 km/h (4 Bft) 100,00 %
08.03.2018 01:02 5,0 C 4,4 C 3,3 C 96 % 15 lf 999,4 hPa 0,0 l/m 0 min 0 min 0 W/m 24,8 km/h (4 Bft) 97,87 %
08.03.2018 01:04 5,0 C 4,4 C 3,3 C 96 % 15 lf 999,4 hPa 0,0 l/m 0 min 2 min 0 W/m 24,8 km/h (4 Bft) 95,74 %
08.03.2018 01:06 5,0 C 4,4 C 3,3 C 96 % 15 lf 999,4 hPa 0,0 l/m 0 min 0 min 0 W/m 36,0 km/h (5 Bft) 95,74 %
08.03.2018 01:08 5,0 C 4,4 C 3,3 C 96 % 15 lf 999,4 hPa 0,2 l/m 0 min 0 min 0 W/m 29,3 km/h (5 Bft) 95,74 %
08.03.2018 01:10 4,9 C 4,4 C 3,3 C 96 % 15 lf 999,5 hPa 0,0 l/m 0 min 2 min 0 W/m 29,3 km/h (5 Bft) 95,65 %
08.03.2018 01:12 5,0 C 4,4 C 3,3 C 96 % 15 lf 999,5 hPa 0,0 l/m 0 min 0 min 0 W/m 31,5 km/h (5 Bft) 97,87 %
08.03.2018 01:14 4,9 C 4,4 C 3,3 C 96 % 15 lf 999,6 hPa 0,0 l/m 0 min 0 min 0 W/m 29,3 km/h (5 Bft) 97,87 %
08.03.2018 01:16 5,0 C 4,4 C 3,3 C 96 % 15 lf 999,6 hPa 0,0 l/m 0 min 0 min 0 W/m 29,3 km/h (5 Bft) 97,87 %
08.03.2018 01:18 5,0 C 4,4 C 3,3 C 96 % 15 lf 999,6 hPa 0,0 l/m 0 min 0 min 0 W/m 27,0 km/h (4 Bft) 97,87 %
08.03.2018 01:20 4,9 C 4,4 C 3,3 C 96 % 15 lf 999,6 hPa 0,0 l/m 0 min 0 min 0 W/m 36,0 km/h (5 Bft) 95,74 %
08.03.2018 01:22 5,0 C 4,4 C 3,3 C 95 % 15 lf 999,6 hPa 0,0 l/m 0 min 0 min 0 W/m 29,3 km/h (5 Bft) 95,65 %
08.03.2018 01:24 5,0 C 4,4 C 3,3 C 95 % 15 lf 999,6 hPa 0,0 l/m 0 min 0 min 0 W/m 27,0 km/h (4 Bft) 95,74 %
08.03.2018 01:26 5,0 C 4,4 C 3,3 C 95 % 15 lf 999,6 hPa 0,0 l/m 0 min 0 min 0 W/m 33,8 km/h (5 Bft) 91,49 %
08.03.2018 01:28 5,0 C 4,4 C 3,3 C 95 % 15 lf 999,6 hPa 0,0 l/m 0 min 0 min 0 W/m 31,5 km/h (5 Bft) 95,74 %
08.03.2018 01:30 5,0 C 4,4 C 3,3 C 95 % 15 lf 999,6 hPa 0,0 l/m 0 min 0 min 0 W/m 29,3 km/h (5 Bft) 95,74 %
08.03.2018 01:32 5,0 C 4,4 C 3,3 C 95 % 15 lf 999,6 hPa 0,0 l/m 0 min 0 min 0 W/m 27,0 km/h (4 Bft) 95,74 %
08.03.2018 01:34 5,0 C 4,4 C 3,3 C 95 % 15 lf 999,6 hPa 0,0 l/m 0 min 0 min 0 W/m 29,3 km/h (5 Bft) 95,65 %
08.03.2018 01:36 5,0 C 4,4 C 3,3 C 95 % 15 lf 999,6 hPa 0,0 l/m 0 min 0 min 0 W/m 29,3 km/h (5 Bft) 95,74 %
08.03.2018 01:38 5,0 C 4,4 C 3,3 C 95 % 15 lf 999,7 hPa 0,0 l/m 0 min 0 min 0 W/m 24,8 km/h (4 Bft) 91,49 %
08.03.2018 01:40 5,0 C 4,4 C 3,3 C 95 % 15 lf 999,7 hPa 0,0 l/m 0 min 0 min 0 W/m 27,0 km/h (4 Bft) 95,74 %
08.03.2018 01:42 5,0 C 4,4 C 3,3 C 95 % 15 lf 999,7 hPa 0,0 l/m 0 min 0 min 0 W/m 29,3 km/h (5 Bft) 91,49 %
08.03.2018 01:44 5,0 C 4,4 C 3,3 C 95 % 15 lf 999,7 hPa 0,0 l/m 0 min 0 min 0 W/m 24,8 km/h (4 Bft) 95,74 %
08.03.2018 01:46 5,0 C 4,4 C 3,3 C 95 % 15 lf 999,8 hPa 0,0 l/m 0 min 0 min 0 W/m 31,5 km/h (5 Bft) 95,65 %
08.03.2018 01:48 5,0 C 4,4 C 3,3 C 95 % 15 lf 999,8 hPa 0,0 l/m 0 min 0 min 0 W/m 20,3 km/h (4 Bft) 95,74 %
08.03.2018 01:50 5,0 C 4,4 C 3,3 C 95 % 15 lf 999,8 hPa 0,0 l/m 0 min 0 min 0 W/m 24,8 km/h (4 Bft) 95,74 %
08.03.2018 01:52 4,9 C 4,4 C 3,3 C 94 % 15 lf 999,8 hPa 0,0 l/m 0 min 0 min 0 W/m 22,5 km/h (4 Bft) 97,87 %
08.03.2018 01:54 4,9 C 4,4 C 3,3 C 94 % 15 lf 999,8 hPa 0,0 l/m 0 min 0 min 0 W/m 24,8 km/h (4 Bft) 97,87 %
08.03.2018 01:56 4,9 C 4,4 C 3,3 C 94 % 15 lf 999,8 hPa 0,0 l/m 0 min 0 min 0 W/m 22,5 km/h (4 Bft) 95,65 %
08.03.2018 01:58 4,9 C 4,4 C 3,3 C 94 % 15 lf 999,8 hPa 0,0 l/m 0 min 0 min 0 W/m 22,5 km/h (4 Bft) 97,87 %
08.03.2018 02:00 4,9 C 4,4 C 3,3 C 94 % 15 lf 999,9 hPa 0,0 l/m 0 min 0 min 0 W/m 27,0 km/h (4 Bft) 97,87 %
08.03.2018 02:02 4,9 C 4,4 C 3,3 C 94 % 15 lf 999,9 hPa 0,0 l/m 0 min 0 min 0 W/m 29,3 km/h (5 Bft) 95,74 %
08.03.2018 02:04 4,9 C 4,4 C 3,3 C 94 % 14 lf 1000,0 hPa 0,0 l/m 0 min 0 min 0 W/m 29,3 km/h (5 Bft) 97,87 %
08.03.2018 02:06 4,9 C 4,4 C 3,3 C 94 % 13 lf 999,9 hPa 0,0 l/m 0 min 0 min 0 W/m 20,3 km/h (4 Bft) 93,62 %
08.03.2018 02:08 4,9 C 4,4 C 3,3 C 94 % 13 lf 1000,0 hPa 0,0 l/m 0 min 0 min 0 W/m 20,3 km/h (4 Bft) 95,74 %
08.03.2018 02:10 4,9 C 4,4 C 3,3 C 94 % 12 lf 1000,0 hPa 0,0 l/m 0 min 0 min 0 W/m 20,3 km/h (4 Bft) 97,83 %
08.03.2018 02:12 4,8 C 4,4 C 2,8 C 94 % 11 lf 1000,0 hPa 0,0 l/m 0 min 0 min 0 W/m 22,5 km/h (4 Bft) 97,87 %
08.03.2018 02:14 4,8 C 3,9 C 2,8 C 94 % 10 lf 999,9 hPa 0,0 l/m 0 min 0 min 0 W/m 22,5 km/h (4 Bft) 95,74 %
08.03.2018 02:16 4,8 C 3,9 C 2,8 C 94 % 8 lf 1000,1 hPa 0,0 l/m 0 min 0 min 0 W/m 27,0 km/h (4 Bft) 97,87 %
08.03.2018 02:18 4,8 C 3,9 C 2,8 C 94 % 6 lf 1000,1 hPa 0,0 l/m 0 min 0 min 0 W/m 33,8 km/h (5 Bft) 97,87 %
08.03.2018 02:20 4,7 C 3,9 C 2,8 C 94 % 4 lf 1000,1 hPa 0,0 l/m 0 min 0 min 0 W/m 33,8 km/h (5 Bft) 97,83 %
08.03.2018 02:22 4,7 C 3,9 C 2,8 C 94 % 3 lf 1000,1 hPa 0,0 l/m 0 min 0 min 0 W/m 31,5 km/h (5 Bft) 95,74 %
08.03.2018 02:24 4,7 C 3,9 C 2,8 C 93 % 3 lf 1000,1 hPa 0,0 l/m 0 min 0 min 0 W/m 27,0 km/h (4 Bft) 97,87 %
08.03.2018 02:26 4,7 C 3,9 C 2,8 C 93 % 2 lf 1000,1 hPa 0,0 l/m 0 min 0 min 0 W/m 22,5 km/h (4 Bft) 97,87 %
08.03.2018 02:28 4,7 C 3,9 C 2,8 C 93 % 2 lf 1000,1 hPa 0,0 l/m 0 min 0 min 0 W/m 29,3 km/h (5 Bft) 97,87 %
08.03.2018 02:30 4,6 C 3,9 C 2,8 C 93 % 1 lf 1000,1 hPa 0,0 l/m 0 min 0 min 0 W/m 18,0 km/h (3 Bft) 97,87 %
08.03.2018 02:32 4,6 C 3,9 C 2,8 C 93 % 1 lf 1000,1 hPa 0,0 l/m 0 min 0 min 0 W/m 24,8 km/h (4 Bft) 97,83 %
08.03.2018 02:34 4,6 C 3,9 C 2,8 C 93 % 1 lf 1000,1 hPa 0,0 l/m 0 min 0 min 0 W/m 24,8 km/h (4 Bft) 97,87 %
08.03.2018 02:36 4,6 C 3,9 C 2,2 C 93 % 1 lf 1000,1 hPa 0,0 l/m 0 min 0 min 0 W/m 20,3 km/h (4 Bft) 95,74 %
08.03.2018 02:38 4,5 C 3,9 C 2,2 C 93 % 1 lf 1000,1 hPa 0,0 l/m 0 min 0 min 0 W/m 33,8 km/h (5 Bft) 97,87 %
08.03.2018 02:40 4,4 C 3,3 C 2,2 C 93 % 1 lf 1000,1 hPa 0,0 l/m 0 min 0 min 0 W/m 27,0 km/h (4 Bft) 97,87 %
08.03.2018 02:42 4,4 C 3,3 C 2,2 C 93 % 1 lf 1000,1 hPa 0,0 l/m 0 min 0 min 0 W/m 24,8 km/h (4 Bft) 91,49 %
08.03.2018 02:44 4,4 C 3,3 C 2,2 C 93 % 1 lf 1000,1 hPa 0,0 l/m 0 min 0 min 0 W/m 24,8 km/h (4 Bft) 95,65 %
08.03.2018 02:46 4,4 C 3,3 C 2,2 C 93 % 1 lf 1000,0 hPa 0,0 l/m 0 min 0 min 0 W/m 24,8 km/h (4 Bft) 97,87 %
08.03.2018 02:48 4,3 C 3,3 C 2,2 C 93 % 1 lf 1000,0 hPa 0,0 l/m 0 min 0 min 0 W/m 22,5 km/h (4 Bft) 97,87 %
08.03.2018 02:50 4,3 C 3,3 C 2,2 C 93 % 1 lf 1000,1 hPa 0,0 l/m 0 min 0 min 0 W/m 29,3 km/h (5 Bft) 95,74 %
08.03.2018 02:52 4,3 C 3,9 C 2,2 C 93 % 1 lf 1000,1 hPa 0,0 l/m 0 min 0 min 0 W/m 31,5 km/h (5 Bft) 97,87 %
08.03.2018 02:54 4,3 C 3,3 C 2,2 C 93 % 1 lf 1000,0 hPa 0,0 l/m 0 min 0 min 0 W/m 29,3 km/h (5 Bft) 97,87 %
08.03.2018 02:56 4,3 C 3,3 C 2,2 C 93 % 1 lf 1000,0 hPa 0,0 l/m 0 min 0 min 0 W/m 22,5 km/h (4 Bft) 97,83 %
08.03.2018 02:58 4,3 C 3,3 C 2,2 C 93 % 1 lf 1000,1 hPa 0,0 l/m 0 min 0 min 0 W/m 13,5 km/h (3 Bft) 95,74 %
08.03.2018 03:00 4,2 C 3,3 C 2,2 C 93 % 1 lf 1000,0 hPa 0,0 l/m 0 min 0 min 0 W/m 24,8 km/h (4 Bft) 97,87 %
08.03.2018 03:02 4,2 C 3,3 C 2,2 C 93 % 1 lf 1000,1 hPa 0,0 l/m 0 min 0 min 0 W/m 22,5 km/h (4 Bft) 95,74 %
08.03.2018 03:04 4,2 C 3,3 C 2,2 C 93 % 1 lf 1000,1 hPa 0,0 l/m 0 min 0 min 0 W/m 27,0 km/h (4 Bft) 100,00 %
08.03.2018 03:06 4,2 C 3,3 C 2,2 C 93 % 1 lf 1000,1 hPa 0,0 l/m 0 min 0 min 0 W/m 13,5 km/h (3 Bft) 95,65 %
08.03.2018 03:08 4,2 C 3,3 C 2,2 C 93 % 1 lf 1000,1 hPa 0,0 l/m 0 min 0 min 0 W/m 22,5 km/h (4 Bft) 97,87 %
08.03.2018 03:10 4,2 C 3,3 C 2,2 C 93 % 1 lf 1000,1 hPa 0,0 l/m 0 min 0 min 0 W/m 24,8 km/h (4 Bft) 95,74 %
08.03.2018 03:12 4,2 C 3,3 C 2,2 C 93 % 1 lf 1000,1 hPa 0,0 l/m 0 min 0 min 0 W/m 27,0 km/h (4 Bft) 97,87 %
08.03.2018 03:14 4,2 C 3,3 C 2,2 C 93 % 1 lf 1000,1 hPa 0,0 l/m 0 min 0 min 0 W/m 24,8 km/h (4 Bft) 100,00 %
08.03.2018 03:16 4,1 C 3,3 C 2,2 C 93 % 1 lf 1000,1 hPa 0,0 l/m 0 min 0 min 0 W/m 24,8 km/h (4 Bft) 97,87 %
08.03.2018 03:18 4,1 C 3,3 C 2,2 C 93 % 1 lf 1000,0 hPa 0,0 l/m 0 min 0 min 0 W/m 20,3 km/h (4 Bft) 100,00 %
08.03.2018 03:20 4,1 C 3,3 C 2,2 C 93 % 1 lf 1000,0 hPa 0,0 l/m 0 min 0 min 0 W/m 27,0 km/h (4 Bft) 97,87 %
08.03.2018 03:22 4,1 C 3,3 C 2,2 C 93 % 1 lf 1000,1 hPa 0,0 l/m 0 min 0 min 0 W/m 22,5 km/h (4 Bft) 95,74 %
08.03.2018 03:24 4,1 C 3,3 C 1,7 C 93 % 1 lf 1000,0 hPa 0,0 l/m 0 min 0 min 0 W/m 22,5 km/h (4 Bft) 97,87 %
08.03.2018 03:26 4,1 C 3,3 C 1,7 C 93 % 1 lf 1000,0 hPa 0,0 l/m 0 min 0 min 0 W/m 24,8 km/h (4 Bft) 97,87 %
08.03.2018 03:28 4,0 C 3,3 C 1,7 C 93 % 1 lf 1000,1 hPa 0,0 l/m 0 min 0 min 0 W/m 24,8 km/h (4 Bft) 95,74 %
08.03.2018 03:30 4,0 C 3,3 C 2,2 C 93 % 1 lf 1000,1 hPa 0,0 l/m 0 min 0 min 0 W/m 24,8 km/h (4 Bft) 97,83 %
08.03.2018 03:32 4,0 C 3,3 C 1,7 C 93 % 1 lf 1000,1 hPa 0,0 l/m 0 min 0 min 0 W/m 20,3 km/h (4 Bft) 97,87 %
08.03.2018 03:34 4,0 C 3,3 C 1,7 C 93 % 1 lf 1000,0 hPa 0,0 l/m 0 min 0 min 0 W/m 22,5 km/h (4 Bft) 97,87 %
08.03.2018 03:36 4,0 C 3,3 C 1,7 C 93 % 1 lf 1000,0 hPa 0,0 l/m 0 min 0 min 0 W/m 24,8 km/h (4 Bft) 95,74 %
08.03.2018 03:38 4,0 C 3,3 C 1,7 C 93 % 1 lf 1000,1 hPa 0,0 l/m 0 min 0 min 0 W/m 20,3 km/h (4 Bft) 95,74 %
08.03.2018 03:40 3,9 C 3,3 C 1,7 C 93 % 1 lf 1000,1 hPa 0,0 l/m 0 min 0 min 0 W/m 22,5 km/h (4 Bft) 97,87 %
08.03.2018 03:42 3,9 C 3,3 C 1,7 C 93 % 1 lf 1000,1 hPa 0,0 l/m 0 min 0 min 0 W/m 22,5 km/h (4 Bft) 97,83 %
08.03.2018 03:44 3,9 C 3,3 C 1,7 C 93 % 1 lf 1000,0 hPa 0,0 l/m 0 min 0 min 0 W/m 18,0 km/h (3 Bft) 93,62 %
08.03.2018 03:46 3,9 C 3,3 C 1,7 C 93 % 1 lf 1000,1 hPa 0,0 l/m 0 min 0 min 0 W/m 27,0 km/h (4 Bft) 97,87 %
08.03.2018 03:48 3,9 C 3,3 C 1,7 C 93 % 1 lf 1000,1 hPa 0,0 l/m 0 min 0 min 0 W/m 27,0 km/h (4 Bft) 100,00 %
08.03.2018 03:50 3,9 C 3,3 C 1,7 C 93 % 1 lf 1000,0 hPa 0,0 l/m 0 min 0 min 0 W/m 18,0 km/h (3 Bft) 95,74 %
08.03.2018 03:52 3,9 C 3,3 C 1,7 C 93 % 1 lf 1000,1 hPa 0,0 l/m 0 min 0 min 0 W/m 18,0 km/h (3 Bft) 95,74 %
08.03.2018 03:54 3,9 C 3,3 C 1,7 C 93 % 1 lf 1000,1 hPa 0,0 l/m 0 min 0 min 0 W/m 11,3 km/h (2 Bft) 97,83 %
08.03.2018 03:56 3,9 C 3,3 C 1,7 C 93 % 1 lf 1000,1 hPa 0,0 l/m 0 min 0 min 0 W/m 18,0 km/h (3 Bft) 93,62 %
08.03.2018 03:58 3,9 C 3,3 C 1,7 C 93 % 1 lf 1000,1 hPa 0,0 l/m 0 min 0 min 0 W/m 11,3 km/h (2 Bft) 95,74 %
08.03.2018 04:00 3,9 C 3,3 C 1,7 C 93 % 1 lf 1000,1 hPa 0,0 l/m 0 min 0 min 0 W/m 15,8 km/h (3 Bft) 95,74 %
08.03.2018 04:02 3,9 C 3,3 C 1,7 C 93 % 1 lf 1000,0 hPa 0,0 l/m 0 min 0 min 0 W/m 20,3 km/h (4 Bft) 100,00 %
08.03.2018 04:04 3,9 C 3,3 C 1,7 C 93 % 1 lf 1000,1 hPa 0,0 l/m 0 min 0 min 0 W/m 18,0 km/h (3 Bft) 91,49 %
08.03.2018 04:06 3,8 C 3,3 C 1,7 C 93 % 1 lf 1000,0 hPa 0,0 l/m 0 min 0 min 0 W/m 13,5 km/h (3 Bft) 91,30 %
08.03.2018 04:08 3,8 C 3,3 C 1,7 C 93 % 1 lf 1000,1 hPa 0,0 l/m 0 min 0 min 0 W/m 20,3 km/h (4 Bft) 93,62 %
08.03.2018 04:10 3,8 C 2,8 C 1,7 C 93 % 1 lf 1000,1 hPa 0,0 l/m 0 min 0 min 0 W/m 20,3 km/h (4 Bft) 95,74 %
08.03.2018 04:12 3,8 C 2,8 C 1,7 C 93 % 1 lf 1000,2 hPa 0,0 l/m 0 min 0 min 0 W/m 18,0 km/h (3 Bft) 95,74 %
08.03.2018 04:14 3,8 C 2,8 C 1,7 C 93 % 1 lf 1000,2 hPa 0,0 l/m 0 min 0 min 0 W/m 13,5 km/h (3 Bft) 95,74 %
08.03.2018 04:16 3,8 C 2,8 C 1,7 C 93 % 1 lf 1000,2 hPa 0,0 l/m 0 min 0 min 0 W/m 13,5 km/h (3 Bft) 95,74 %
08.03.2018 04:18 3,8 C 2,8 C 1,7 C 93 % 1 lf 1000,2 hPa 0,0 l/m 0 min 0 min 0 W/m 24,8 km/h (4 Bft) 91,30 %
08.03.2018 04:20 3,8 C 2,8 C 1,7 C 92 % 1 lf 1000,2 hPa 0,0 l/m 0 min 0 min 0 W/m 13,5 km/h (3 Bft) 95,74 %
08.03.2018 04:22 3,7 C 2,8 C 1,1 C 92 % 1 lf 1000,2 hPa 0,0 l/m 0 min 0 min 0 W/m 11,3 km/h (2 Bft) 95,74 %
08.03.2018 04:24 3,7 C 2,8 C 1,1 C 92 % 1 lf 1000,2 hPa 0,0 l/m 0 min 0 min 0 W/m 9,0 km/h (2 Bft) 95,74 %
08.03.2018 04:26 3,7 C 2,8 C 1,1 C 92 % 1 lf 1000,2 hPa 0,0 l/m 0 min 0 min 0 W/m 24,8 km/h (4 Bft) 95,74 %
08.03.2018 04:28 3,7 C 2,8 C 1,1 C 92 % 1 lf 1000,1 hPa 0,0 l/m 0 min 0 min 0 W/m 18,0 km/h (3 Bft) 93,62 %
08.03.2018 04:30 3,7 C 2,8 C 1,1 C 92 % 1 lf 1000,2 hPa 0,0 l/m 0 min 0 min 0 W/m 13,5 km/h (3 Bft) 95,65 %
08.03.2018 04:32 3,7 C 2,8 C 1,1 C 92 % 1 lf 1000,2 hPa 0,0 l/m 0 min 0 min 0 W/m 11,3 km/h (2 Bft) 95,74 %
08.03.2018 04:34 3,6 C 2,8 C 1,1 C 92 % 1 lf 1000,1 hPa 0,0 l/m 0 min 0 min 0 W/m 15,8 km/h (3 Bft) 95,74 %
08.03.2018 04:36 3,6 C 2,8 C 1,1 C 92 % 1 lf 1000,1 hPa 0,0 l/m 0 min 0 min 0 W/m 18,0 km/h (3 Bft) 89,36 %
08.03.2018 04:38 3,6 C 2,8 C 1,1 C 92 % 1 lf 1000,1 hPa 0,0 l/m 0 min 0 min 0 W/m 6,8 km/h (2 Bft) 93,62 %
08.03.2018 04:40 3,6 C 2,8 C 1,1 C 92 % 1 lf 1000,2 hPa 0,0 l/m 0 min 0 min 0 W/m 15,8 km/h (3 Bft) 95,65 %
08.03.2018 04:42 3,5 C 2,8 C 1,1 C 92 % 1 lf 1000,1 hPa 0,0 l/m 0 min 0 min 0 W/m 11,3 km/h (2 Bft) 93,62 %
08.03.2018 04:44 3,5 C 2,8 C 1,1 C 92 % 1 lf 1000,1 hPa 0,0 l/m 0 min 0 min 0 W/m 13,5 km/h (3 Bft) 95,74 %
08.03.2018 04:46 3,4 C 2,8 C 1,1 C 92 % 1 lf 1000,1 hPa 0,0 l/m 0 min 0 min 0 W/m 15,8 km/h (3 Bft) 97,87 %
08.03.2018 04:48 3,4 C 2,8 C 1,1 C 92 % 1 lf 1000,2 hPa 0,0 l/m 0 min 0 min 0 W/m 13,5 km/h (3 Bft) 93,62 %
08.03.2018 04:50 3,4 C 2,2 C 1,1 C 92 % 1 lf 1000,3 hPa 0,0 l/m 0 min 0 min 0 W/m 11,3 km/h (2 Bft) 95,74 %
08.03.2018 04:52 3,4 C 2,2 C 1,1 C 92 % 1 lf 1000,3 hPa 0,0 l/m 0 min 0 min 0 W/m 11,3 km/h (2 Bft) 95,65 %
08.03.2018 04:54 3,4 C 2,8 C 1,1 C 92 % 1 lf 1000,3 hPa 0,0 l/m 0 min 0 min 0 W/m 20,3 km/h (4 Bft) 93,62 %
08.03.2018 04:56 3,3 C 2,8 C 1,1 C 92 % 1 lf 1000,2 hPa 0,0 l/m 0 min 0 min 0 W/m 11,3 km/h (2 Bft) 89,36 %
08.03.2018 04:58 3,3 C 2,2 C 0,6 C 92 % 1 lf 1000,3 hPa 0,0 l/m 0 min 0 min 0 W/m 13,5 km/h (3 Bft) 93,62 %
08.03.2018 05:00 3,3 C 2,2 C 0,6 C 92 % 1 lf 1000,2 hPa 0,0 l/m 0 min 0 min 0 W/m 9,0 km/h (2 Bft) 95,74 %
08.03.2018 05:02 3,3 C 2,2 C 0,6 C 92 % 1 lf 1000,2 hPa 0,0 l/m 0 min 0 min 0 W/m 6,8 km/h (2 Bft) 87,23 %
08.03.2018 05:04 3,2 C 2,2 C 0,6 C 92 % 1 lf 1000,3 hPa 0,0 l/m 0 min 0 min 0 W/m 13,5 km/h (3 Bft) 97,83 %
08.03.2018 05:06 3,2 C 2,2 C 0,6 C 92 % 1 lf 1000,3 hPa 0,0 l/m 0 min 0 min 0 W/m 11,3 km/h (2 Bft) 93,62 %
08.03.2018 05:08 3,2 C 2,2 C 0,6 C 92 % 1 lf 1000,3 hPa 0,0 l/m 0 min 0 min 0 W/m 11,3 km/h (2 Bft) 95,74 %
08.03.2018 05:10 3,2 C 2,2 C 0,6 C 92 % 1 lf 1000,3 hPa 0,0 l/m 0 min 0 min 0 W/m 4,5 km/h (1 Bft) 93,62 %
08.03.2018 05:12 3,2 C 2,2 C 0,6 C 92 % 1 lf 1000,3 hPa 0,0 l/m 0 min 0 min 0 W/m 11,3 km/h (2 Bft) 95,74 %
08.03.2018 05:14 3,1 C 2,2 C 0,6 C 92 % 1 lf 1000,3 hPa 0,0 l/m 0 min 0 min 0 W/m 6,8 km/h (2 Bft) 97,87 %
08.03.2018 05:16 3,1 C 2,2 C 0,6 C 92 % 1 lf 1000,2 hPa 0,0 l/m 0 min 0 min 0 W/m 13,5 km/h (3 Bft) 91,30 %
08.03.2018 05:18 3,1 C 2,2 C 0,6 C 92 % 1 lf 1000,3 hPa 0,0 l/m 0 min 0 min 0 W/m 13,5 km/h (3 Bft) 95,74 %
08.03.2018 05:20 3,1 C 2,2 C 0,6 C 92 % 1 lf 1000,2 hPa 0,0 l/m 0 min 0 min 0 W/m 15,8 km/h (3 Bft) 95,74 %
08.03.2018 05:22 3,1 C 2,2 C 0,6 C 92 % 1 lf 1000,2 hPa 0,0 l/m 0 min 0 min 0 W/m 6,8 km/h (2 Bft) 93,62 %
08.03.2018 05:24 3,0 C 2,2 C 0,6 C 92 % 1 lf 1000,2 hPa 0,0 l/m 0 min 0 min 0 W/m 11,3 km/h (2 Bft) 95,74 %
08.03.2018 05:26 3,0 C 2,2 C 0,6 C 92 % 1 lf 1000,2 hPa 0,0 l/m 0 min 0 min 0 W/m 13,5 km/h (3 Bft) 93,62 %
08.03.2018 05:28 3,0 C 2,2 C 0,6 C 92 % 1 lf 1000,2 hPa 0,0 l/m 0 min 0 min 0 W/m 6,8 km/h (2 Bft) 91,30 %
08.03.2018 05:30 2,9 C 2,2 C 0,6 C 92 % 1 lf 1000,3 hPa 0,0 l/m 0 min 0 min 0 W/m 9,0 km/h (2 Bft) 95,74 %
08.03.2018 05:32 2,9 C 2,2 C 0,0 C 92 % 1 lf 1000,2 hPa 0,0 l/m 0 min 0 min 0 W/m 11,3 km/h (2 Bft) 95,74 %
08.03.2018 05:34 2,9 C 2,2 C 0,0 C 92 % 1 lf 1000,2 hPa 0,0 l/m 0 min 0 min 0 W/m 9,0 km/h (2 Bft) 97,87 %
08.03.2018 05:36 2,9 C 1,7 C 0,0 C 92 % 1 lf 1000,1 hPa 0,0 l/m 0 min 0 min 0 W/m 11,3 km/h (2 Bft) 95,74 %
08.03.2018 05:38 2,9 C 1,7 C 0,0 C 92 % 1 lf 1000,1 hPa 0,0 l/m 0 min 0 min 0 W/m 9,0 km/h (2 Bft) 95,74 %
08.03.2018 05:40 2,9 C 1,7 C 0,0 C 92 % 1 lf 1000,1 hPa 0,0 l/m 0 min 0 min 0 W/m 6,8 km/h (2 Bft) 97,83 %
08.03.2018 05:42 2,8 C 1,7 C 0,0 C 92 % 1 lf 1000,1 hPa 0,0 l/m 0 min 0 min 0 W/m 9,0 km/h (2 Bft) 97,87 %
08.03.2018 05:44 2,8 C 1,7 C 0,0 C 92 % 1 lf 1000,2 hPa 0,0 l/m 0 min 0 min 0 W/m 0,0 km/h (0 Bft) 100,00 %
08.03.2018 05:46 2,8 C 1,7 C 0,0 C 92 % 1 lf 1000,2 hPa 0,0 l/m 0 min 0 min 0 W/m 2,3 km/h (1 Bft) 97,87 %
08.03.2018 05:48 2,7 C 1,7 C 0,0 C 92 % 1 lf 1000,3 hPa 0,0 l/m 0 min 0 min 0 W/m 6,8 km/h (2 Bft) 100,00 %
08.03.2018 05:50 2,7 C 1,7 C 0,0 C 92 % 1 lf 1000,3 hPa 0,0 l/m 0 min 0 min 0 W/m 6,8 km/h (2 Bft) 100,00 %
08.03.2018 05:52 2,7 C 1,7 C 0,0 C 92 % 1 lf 1000,3 hPa 0,0 l/m 0 min 0 min 0 W/m 6,8 km/h (2 Bft) 97,87 %
08.03.2018 05:54 2,7 C 1,7 C 0,0 C 92 % 2 lf 1000,3 hPa 0,0 l/m 0 min 0 min 0 W/m 9,0 km/h (2 Bft) 100,00 %
08.03.2018 05:56 2,7 C 1,7 C 0,0 C 92 % 2 lf 1000,2 hPa 0,0 l/m 0 min 0 min 0 W/m 2,3 km/h (1 Bft) 100,00 %
08.03.2018 05:58 2,6 C 1,7 C 0,0 C 92 % 2 lf 1000,3 hPa 0,0 l/m 0 min 0 min 0 W/m 6,8 km/h (2 Bft) 97,87 %
08.03.2018 06:00 2,6 C 1,7 C 0,0 C 92 % 2 lf 1000,4 hPa 0,0 l/m 0 min 0 min 0 W/m 4,5 km/h (1 Bft) 100,00 %
08.03.2018 06:02 2,6 C 1,7 C 0,0 C 92 % 2 lf 1000,4 hPa 0,0 l/m 0 min 0 min 0 W/m 4,5 km/h (1 Bft) 97,83 %
08.03.2018 06:04 2,6 C 1,7 C 0,0 C 92 % 2 lf 1000,3 hPa 0,0 l/m 0 min 0 min 0 W/m 4,5 km/h (1 Bft) 100,00 %
08.03.2018 06:08 2,6 C 1,7 C 0,0 C 92 % 2 lf 1000,3 hPa 0,0 l/m 0 min 0 min 0 W/m 6,8 km/h (2 Bft) 100,00 %
08.03.2018 06:10 2,5 C 1,7 C -0,6 C 92 % 2 lf 1000,3 hPa 0,0 l/m 0 min 0 min 0 W/m 6,8 km/h (2 Bft) 100,00 %
08.03.2018 06:12 2,5 C 1,7 C -0,6 C 92 % 2 lf 1000,3 hPa 0,0 l/m 0 min 0 min 0 W/m 4,5 km/h (1 Bft) 100,00 %
08.03.2018 06:14 2,4 C 1,7 C 0,0 C 92 % 2 lf 1000,3 hPa 0,0 l/m 0 min 0 min 0 W/m 0,0 km/h (0 Bft) 100,00 %
08.03.2018 06:16 2,4 C 1,7 C 0,0 C 92 % 2 lf 1000,2 hPa 0,0 l/m 0 min 0 min 0 W/m 2,3 km/h (1 Bft) 100,00 %
08.03.2018 06:18 2,4 C 1,7 C 0,0 C 92 % 2 lf 1000,3 hPa 0,0 l/m 0 min 0 min 0 W/m 4,5 km/h (1 Bft) 100,00 %
08.03.2018 06:20 2,4 C 1,7 C 0,0 C 92 % 2 lf 1000,3 hPa 0,0 l/m 0 min 0 min 0 W/m 4,5 km/h (1 Bft) 100,00 %
08.03.2018 06:22 2,4 C 1,7 C 0,0 C 92 % 2 lf 1000,3 hPa 0,0 l/m 0 min 0 min 0 W/m 6,8 km/h (2 Bft) 100,00 %
08.03.2018 06:24 2,4 C 1,7 C 0,0 C 92 % 2 lf 1000,3 hPa 0,0 l/m 0 min 0 min 0 W/m 9,0 km/h (2 Bft) 97,87 %
08.03.2018 06:26 2,3 C 1,7 C -0,6 C 92 % 2 lf 1000,4 hPa 0,0 l/m 0 min 0 min 0 W/m 0,0 km/h (0 Bft) 97,87 %
08.03.2018 06:28 2,3 C 1,7 C -0,6 C 92 % 2 lf 1000,3 hPa 0,0 l/m 0 min 0 min 0 W/m 2,3 km/h (1 Bft) 100,00 %
08.03.2018 06:30 2,3 C 1,7 C -0,6 C 92 % 2 lf 1000,3 hPa 0,0 l/m 0 min 0 min 0 W/m 0,0 km/h (0 Bft) 97,87 %
08.03.2018 06:32 2,3 C 1,7 C -0,6 C 92 % 2 lf 1000,4 hPa 0,0 l/m 0 min 0 min 0 W/m 4,5 km/h (1 Bft) 100,00 %
08.03.2018 06:34 2,3 C 1,7 C -0,6 C 92 % 2 lf 1000,4 hPa 0,0 l/m 0 min 0 min 0 W/m 4,5 km/h (1 Bft) 100,00 %
08.03.2018 06:36 2,3 C 1,7 C 0,0 C 92 % 2 lf 1000,3 hPa 0,0 l/m 0 min 0 min 0 W/m 11,3 km/h (2 Bft) 100,00 %
08.03.2018 06:38 2,3 C 2,2 C 0,0 C 92 % 1 lf 1000,4 hPa 0,0 l/m 0 min 0 min 0 W/m 20,3 km/h (4 Bft) 100,00 %
08.03.2018 06:40 2,3 C 2,2 C 0,0 C 92 % 1 lf 1000,5 hPa 0,0 l/m 0 min 0 min 0 W/m 6,8 km/h (2 Bft) 100,00 %
08.03.2018 06:42 2,3 C 2,2 C 0,6 C 93 % 1 lf 1000,5 hPa 0,0 l/m 0 min 0 min 0 W/m 15,8 km/h (3 Bft) 100,00 %
08.03.2018 06:44 2,3 C 2,2 C 0,6 C 93 % 1 lf 1000,5 hPa 0,0 l/m 0 min 0 min 0 W/m 11,3 km/h (2 Bft) 97,83 %
08.03.2018 06:46 2,3 C 2,2 C 0,0 C 93 % 1 lf 1000,4 hPa 0,0 l/m 0 min 0 min 0 W/m 9,0 km/h (2 Bft) 100,00 %
08.03.2018 06:48 2,3 C 2,2 C 0,0 C 93 % 1 lf 1000,4 hPa 0,0 l/m 0 min 0 min 0 W/m 11,3 km/h (2 Bft) 97,87 %
08.03.2018 06:50 2,3 C 2,2 C 0,0 C 93 % 1 lf 1000,5 hPa 0,0 l/m 0 min 0 min 0 W/m 4,5 km/h (1 Bft) 100,00 %
08.03.2018 06:52 2,4 C 2,2 C 0,0 C 93 % 1 lf 1000,5 hPa 0,0 l/m 0 min 0 min 0 W/m 4,5 km/h (1 Bft) 97,14 %
08.03.2018 06:54 2,4 C 2,2 C 0,0 C 93 % 1 lf 1000,6 hPa 0,0 l/m 0 min 0 min 0 W/m 4,5 km/h (1 Bft) 97,87 %
08.03.2018 06:56 2,4 C 2,2 C 0,0 C 93 % 1 lf 1000,6 hPa 0,0 l/m 0 min 0 min 1 W/m 0,0 km/h (0 Bft) 93,48 %
08.03.2018 06:58 2,4 C 2,2 C 0,0 C 93 % 1 lf 1000,6 hPa 0,0 l/m 0 min 0 min 5 W/m 0,0 km/h (0 Bft) 93,62 %
08.03.2018 07:00 2,4 C 2,2 C 0,0 C 93 % 1 lf 1000,6 hPa 0,0 l/m 0 min 0 min 5 W/m 2,3 km/h (1 Bft) 95,74 %
08.03.2018 07:02 2,4 C 2,2 C -0,6 C 93 % 1 lf 1000,6 hPa 0,0 l/m 0 min 0 min 5 W/m 2,3 km/h (1 Bft) 91,49 %
08.03.2018 07:04 2,4 C 1,7 C -0,6 C 93 % 1 lf 1000,6 hPa 0,0 l/m 0 min 0 min 7 W/m 2,3 km/h (1 Bft) 95,74 %
08.03.2018 07:06 2,3 C 1,7 C -0,6 C 93 % 1 lf 1000,5 hPa 0,0 l/m 0 min 0 min 7 W/m 4,5 km/h (1 Bft) 93,62 %
08.03.2018 07:08 2,3 C 1,7 C -0,6 C 93 % 1 lf 1000,6 hPa 0,0 l/m 0 min 0 min 7 W/m 2,3 km/h (1 Bft) 95,65 %
08.03.2018 07:10 2,3 C 1,7 C -0,6 C 93 % 1 lf 1000,6 hPa 0,0 l/m 0 min 0 min 9 W/m 2,3 km/h (1 Bft) 93,62 %
08.03.2018 07:12 2,3 C 1,7 C -0,6 C 93 % 1 lf 1000,7 hPa 0,0 l/m 0 min 0 min 9 W/m 4,5 km/h (1 Bft) 95,74 %
08.03.2018 07:14 2,3 C 1,7 C 0,0 C 93 % 1 lf 1000,6 hPa 0,0 l/m 0 min 0 min 11 W/m 6,8 km/h (2 Bft) 93,62 %
08.03.2018 07:16 2,2 C 1,7 C 0,0 C 92 % 1 lf 1000,7 hPa 0,0 l/m 0 min 0 min 12 W/m 0,0 km/h (0 Bft) 93,62 %
08.03.2018 07:18 2,2 C 1,7 C 0,0 C 92 % 1 lf 1000,7 hPa 0,0 l/m 0 min 0 min 13 W/m 0,0 km/h (0 Bft) 93,62 %
08.03.2018 07:20 2,2 C 1,7 C 0,0 C 92 % 1 lf 1000,7 hPa 0,0 l/m 0 min 0 min 14 W/m 2,3 km/h (1 Bft) 94,83 %
08.03.2018 07:22 2,2 C 1,7 C 0,0 C 92 % 1 lf 1000,6 hPa 0,0 l/m 0 min 0 min 18 W/m 2,3 km/h (1 Bft) 94,29 %
08.03.2018 07:24 2,2 C 1,7 C 0,0 C 92 % 1 lf 1000,6 hPa 0,0 l/m 2 min 0 min 20 W/m 4,5 km/h (1 Bft) 91,49 %
08.03.2018 07:26 2,1 C 1,7 C 0,0 C 92 % 1 lf 1000,6 hPa 0,0 l/m 2 min 0 min 23 W/m 6,8 km/h (2 Bft) 93,62 %
08.03.2018 07:28 2,1 C 1,7 C 0,0 C 92 % 1 lf 1000,6 hPa 0,0 l/m 2 min 0 min 26 W/m 6,8 km/h (2 Bft) 93,62 %
08.03.2018 07:30 2,1 C 2,2 C 0,0 C 93 % 1 lf 1000,6 hPa 0,0 l/m 0 min 0 min 27 W/m 2,3 km/h (1 Bft) 93,62 %
08.03.2018 07:32 2,1 C 2,2 C 0,0 C 93 % 1 lf 1000,6 hPa 0,0 l/m 0 min 0 min 30 W/m 2,3 km/h (1 Bft) 93,48 %
08.03.2018 07:34 2,1 C 2,2 C 0,0 C 93 % 1 lf 1000,6 hPa 0,0 l/m 0 min 0 min 32 W/m 6,8 km/h (2 Bft) 95,74 %
08.03.2018 07:36 2,1 C 2,2 C 0,0 C 93 % 1 lf 1000,5 hPa 0,0 l/m 0 min 0 min 35 W/m 2,3 km/h (1 Bft) 91,49 %
08.03.2018 07:38 2,1 C 2,2 C 0,0 C 93 % 1 lf 1000,6 hPa 0,0 l/m 0 min 0 min 38 W/m 6,8 km/h (2 Bft) 95,74 %
08.03.2018 07:40 2,1 C 2,2 C 0,0 C 93 % 1 lf 1000,5 hPa 0,0 l/m 2 min 0 min 42 W/m 4,5 km/h (1 Bft) 95,74 %
08.03.2018 07:42 2,1 C 2,2 C 0,0 C 93 % 1 lf 1000,6 hPa 0,0 l/m 2 min 0 min 46 W/m 9,0 km/h (2 Bft) 95,74 %
08.03.2018 07:44 2,1 C 2,2 C 0,0 C 93 % 1 lf 1000,5 hPa 0,0 l/m 2 min 0 min 49 W/m 6,8 km/h (2 Bft) 95,65 %
08.03.2018 07:46 2,1 C 2,2 C 0,0 C 93 % 1 lf 1000,5 hPa 0,0 l/m 2 min 0 min 53 W/m 6,8 km/h (2 Bft) 95,74 %
08.03.2018 07:48 2,1 C 3,3 C 0,0 C 93 % 1 lf 1000,5 hPa 0,0 l/m 2 min 0 min 57 W/m 4,5 km/h (1 Bft) 93,62 %
08.03.2018 07:50 2,1 C 4,4 C 0,6 C 93 % 1 lf 1000,5 hPa 0,0 l/m 2 min 0 min 63 W/m 4,5 km/h (1 Bft) 98,31 %
08.03.2018 07:52 2,1 C 3,9 C 0,6 C 93 % 1 lf 1000,5 hPa 0,0 l/m 2 min 0 min 68 W/m 9,0 km/h (2 Bft) 94,29 %
08.03.2018 07:54 2,2 C 3,3 C 0,6 C 93 % 1 lf 1000,5 hPa 0,0 l/m 2 min 0 min 71 W/m 9,0 km/h (2 Bft) 97,83 %
08.03.2018 07:56 2,2 C 2,8 C 0,6 C 93 % 1 lf 1000,4 hPa 0,0 l/m 2 min 0 min 76 W/m 9,0 km/h (2 Bft) 97,87 %
08.03.2018 07:58 2,2 C 2,8 C 0,6 C 93 % 1 lf 1000,5 hPa 0,0 l/m 2 min 0 min 81 W/m 11,3 km/h (2 Bft) 95,74 %
08.03.2018 08:00 2,2 C 2,8 C 0,6 C 93 % 1 lf 1000,5 hPa 0,0 l/m 2 min 0 min 85 W/m 18,0 km/h (3 Bft) 97,87 %
08.03.2018 08:02 2,3 C 2,8 C 0,6 C 93 % 1 lf 1000,5 hPa 0,0 l/m 2 min 0 min 91 W/m 15,8 km/h (3 Bft) 97,87 %
08.03.2018 08:04 2,3 C 3,3 C 1,1 C 93 % 1 lf 1000,5 hPa 0,0 l/m 2 min 0 min 96 W/m 18,0 km/h (3 Bft) 93,62 %
08.03.2018 08:08 2,4 C 3,3 C 1,1 C 93 % 1 lf 1000,4 hPa 0,0 l/m 4 min 0 min 104 W/m 15,8 km/h (3 Bft) 94,68 %
08.03.2018 08:10 2,5 C 3,3 C 1,1 C 93 % 1 lf 1000,4 hPa 0,0 l/m 2 min 0 min 113 W/m 20,3 km/h (4 Bft) 95,74 %
08.03.2018 08:12 2,6 C 3,3 C 1,1 C 93 % 1 lf 1000,4 hPa 0,0 l/m 2 min 0 min 119 W/m 15,8 km/h (3 Bft) 97,87 %
08.03.2018 08:14 2,6 C 3,3 C 1,1 C 94 % 1 lf 1000,4 hPa 0,0 l/m 2 min 0 min 125 W/m 15,8 km/h (3 Bft) 97,87 %
08.03.2018 08:16 2,7 C 3,9 C 1,1 C 94 % 0 lf 1000,5 hPa 0,0 l/m 2 min 0 min 132 W/m 18,0 km/h (3 Bft) 97,87 %
08.03.2018 08:18 2,8 C 3,9 C 1,1 C 94 % 0 lf 1000,5 hPa 0,0 l/m 2 min 0 min 140 W/m 15,8 km/h (3 Bft) 97,83 %
08.03.2018 08:20 2,8 C 3,9 C 1,7 C 94 % 0 lf 1000,5 hPa 0,0 l/m 2 min 0 min 154 W/m 15,8 km/h (3 Bft) 98,31 %
08.03.2018 08:22 2,9 C 4,4 C 1,7 C 94 % 0 lf 1000,5 hPa 0,0 l/m 2 min 0 min 180 W/m 24,8 km/h (4 Bft) 91,43 %
08.03.2018 08:24 3,0 C 4,4 C 2,2 C 94 % 0 lf 1000,6 hPa 0,0 l/m 2 min 0 min 213 W/m 20,3 km/h (4 Bft) 97,87 %
08.03.2018 08:26 3,1 C 5,0 C 2,2 C 94 % 0 lf 1000,4 hPa 0,0 l/m 2 min 0 min 221 W/m 29,3 km/h (5 Bft) 89,36 %
08.03.2018 08:28 3,2 C 5,6 C 2,2 C 94 % 0 lf 1000,4 hPa 0,0 l/m 2 min 0 min 123 W/m 24,8 km/h (4 Bft) 97,87 %
08.03.2018 08:30 3,3 C 5,6 C 2,2 C 94 % 0 lf 1000,4 hPa 0,0 l/m 2 min 0 min 105 W/m 20,3 km/h (4 Bft) 97,83 %
08.03.2018 08:32 3,4 C 6,1 C 2,2 C 94 % 0 lf 1000,5 hPa 0,0 l/m 2 min 0 min 128 W/m 22,5 km/h (4 Bft) 97,87 %
08.03.2018 08:34 3,5 C 7,2 C 2,2 C 94 % 0 lf 1000,4 hPa 0,0 l/m 2 min 0 min 179 W/m 24,8 km/h (4 Bft) 95,74 %
08.03.2018 08:36 3,6 C 7,2 C 2,2 C 94 % 0 lf 1000,3 hPa 0,0 l/m 2 min 0 min 161 W/m 24,8 km/h (4 Bft) 97,87 %
08.03.2018 08:38 3,7 C 7,8 C 2,2 C 94 % 0 lf 1000,4 hPa 0,0 l/m 2 min 0 min 190 W/m 27,0 km/h (4 Bft) 97,87 %
08.03.2018 08:40 3,8 C 8,9 C 2,2 C 93 % 0 lf 1000,3 hPa 0,0 l/m 2 min 0 min 207 W/m 18,0 km/h (3 Bft) 97,87 %
08.03.2018 08:42 3,9 C 8,9 C 2,2 C 94 % 0 lf 1000,3 hPa 0,0 l/m 2 min 0 min 213 W/m 24,8 km/h (4 Bft) 97,83 %
08.03.2018 08:44 4,1 C 8,3 C 2,2 C 93 % 0 lf 1000,3 hPa 0,0 l/m 2 min 0 min 217 W/m 33,8 km/h (5 Bft) 97,87 %
08.03.2018 08:46 4,2 C 8,9 C 2,2 C 93 % 0 lf 1000,3 hPa 0,0 l/m 2 min 0 min 228 W/m 20,3 km/h (4 Bft) 95,74 %
08.03.2018 08:48 4,3 C 9,4 C 2,8 C 93 % 0 lf 1000,3 hPa 0,0 l/m 2 min 0 min 236 W/m 27,0 km/h (4 Bft) 95,74 %
08.03.2018 08:50 4,4 C 9,4 C 2,8 C 93 % 0 lf 1000,3 hPa 0,0 l/m 2 min 0 min 250 W/m 29,3 km/h (5 Bft) 93,10 %
08.03.2018 08:52 4,5 C 10,0 C 3,3 C 92 % 0 lf 1000,3 hPa 0,0 l/m 2 min 0 min 273 W/m 18,0 km/h (3 Bft) 97,22 %
08.03.2018 08:54 4,6 C 9,4 C 3,3 C 92 % 0 lf 1000,3 hPa 0,0 l/m 2 min 0 min 289 W/m 33,8 km/h (5 Bft) 97,83 %
08.03.2018 08:56 4,8 C 9,4 C 3,9 C 92 % 0 lf 1000,3 hPa 0,0 l/m 2 min 0 min 294 W/m 24,8 km/h (4 Bft) 97,87 %
08.03.2018 08:58 4,9 C 9,4 C 3,9 C 91 % 0 lf 1000,2 hPa 0,0 l/m 2 min 0 min 300 W/m 27,0 km/h (4 Bft) 100,00 %
08.03.2018 09:00 5,0 C 9,4 C 3,9 C 91 % 0 lf 1000,2 hPa 0,0 l/m 2 min 0 min 313 W/m 29,3 km/h (5 Bft) 93,62 %
08.03.2018 09:02 5,1 C 8,9 C 3,9 C 90 % 0 lf 1000,2 hPa 0,0 l/m 2 min 0 min 324 W/m 29,3 km/h (5 Bft) 95,74 %
08.03.2018 09:04 5,2 C 7,2 C 3,9 C 90 % 0 lf 1000,2 hPa 0,0 l/m 0 min 0 min 131 W/m 22,5 km/h (4 Bft) 100,00 %
08.03.2018 09:06 5,2 C 6,7 C 3,9 C 89 % 0 lf 1000,1 hPa 0,0 l/m 0 min 0 min 118 W/m 22,5 km/h (4 Bft) 100,00 %
08.03.2018 09:08 5,3 C 6,1 C 3,3 C 89 % 0 lf 1000,1 hPa 0,0 l/m 0 min 0 min 123 W/m 36,0 km/h (5 Bft) 97,87 %
08.03.2018 09:10 5,3 C 6,1 C 3,3 C 88 % 0 lf 1000,1 hPa 0,0 l/m 0 min 0 min 127 W/m 38,3 km/h (5 Bft) 95,74 %
08.03.2018 09:12 5,3 C 6,1 C 3,3 C 88 % 0 lf 1000,1 hPa 0,0 l/m 0 min 0 min 134 W/m 29,3 km/h (5 Bft) 97,87 %
08.03.2018 09:14 5,3 C 6,1 C 3,9 C 87 % 0 lf 1000,1 hPa 0,0 l/m 0 min 0 min 147 W/m 24,8 km/h (4 Bft) 97,87 %
08.03.2018 09:16 5,3 C 6,1 C 3,9 C 87 % 0 lf 1000,1 hPa 0,0 l/m 0 min 0 min 144 W/m 27,0 km/h (4 Bft) 91,30 %
08.03.2018 09:18 5,4 C 6,1 C 3,9 C 87 % 0 lf 1000,1 hPa 0,0 l/m 0 min 0 min 149 W/m 27,0 km/h (4 Bft) 95,74 %
08.03.2018 09:20 5,4 C 6,1 C 3,9 C 87 % 0 lf 1000,1 hPa 0,0 l/m 2 min 0 min 163 W/m 29,3 km/h (5 Bft) 96,61 %
08.03.2018 09:22 5,4 C 6,7 C 3,9 C 87 % 0 lf 1000,1 hPa 0,0 l/m 2 min 0 min 167 W/m 24,8 km/h (4 Bft) 97,14 %
08.03.2018 09:24 5,4 C 6,7 C 4,4 C 87 % 0 lf 1000,1 hPa 0,0 l/m 2 min 0 min 171 W/m 20,3 km/h (4 Bft) 97,87 %
08.03.2018 09:26 5,5 C 6,7 C 4,4 C 87 % 0 lf 1000,1 hPa 0,0 l/m 2 min 0 min 175 W/m 33,8 km/h (5 Bft) 93,62 %
08.03.2018 09:28 5,5 C 6,7 C 4,4 C 87 % 0 lf 1000,0 hPa 0,0 l/m 2 min 0 min 178 W/m 20,3 km/h (4 Bft) 95,65 %
08.03.2018 09:30 5,6 C 7,2 C 4,4 C 87 % 0 lf 1000,1 hPa 0,0 l/m 2 min 0 min 180 W/m 22,5 km/h (4 Bft) 95,74 %
08.03.2018 09:32 5,6 C 7,2 C 4,4 C 87 % 0 lf 1000,0 hPa 0,0 l/m 0 min 0 min 171 W/m 22,5 km/h (4 Bft) 97,87 %
08.03.2018 09:34 5,7 C 6,7 C 4,4 C 87 % 0 lf 1000,1 hPa 0,0 l/m 0 min 0 min 167 W/m 22,5 km/h (4 Bft) 93,62 %
08.03.2018 09:36 5,7 C 6,7 C 4,4 C 87 % 0 lf 999,9 hPa 0,0 l/m 0 min 0 min 165 W/m 22,5 km/h (4 Bft) 95,74 %
08.03.2018 09:38 5,7 C 6,7 C 4,4 C 87 % 0 lf 1000,0 hPa 0,0 l/m 0 min 0 min 165 W/m 40,6 km/h (6 Bft) 95,74 %
08.03.2018 09:40 5,8 C 6,7 C 4,4 C 87 % 0 lf 1000,0 hPa 0,0 l/m 0 min 0 min 172 W/m 20,3 km/h (4 Bft) 95,74 %
08.03.2018 09:42 5,8 C 6,7 C 4,4 C 87 % 0 lf 1000,0 hPa 0,0 l/m 0 min 0 min 173 W/m 27,0 km/h (4 Bft) 95,65 %
08.03.2018 09:44 5,8 C 6,7 C 4,4 C 86 % 0 lf 1000,0 hPa 0,0 l/m 0 min 2 min 162 W/m 31,5 km/h (5 Bft) 95,74 %
08.03.2018 09:46 5,9 C 6,7 C 4,4 C 86 % 0 lf 1000,0 hPa 0,0 l/m 0 min 0 min 149 W/m 29,3 km/h (5 Bft) 95,74 %
08.03.2018 09:48 5,9 C 6,7 C 4,4 C 86 % 0 lf 1000,0 hPa 0,0 l/m 0 min 0 min 122 W/m 27,0 km/h (4 Bft) 97,87 %
08.03.2018 09:50 5,9 C 6,7 C 4,4 C 86 % 0 lf 1000,0 hPa 0,0 l/m 0 min 0 min 108 W/m 18,0 km/h (3 Bft) 91,38 %
08.03.2018 09:52 5,9 C 6,7 C 4,4 C 86 % 0 lf 1000,0 hPa 0,0 l/m 0 min 0 min 110 W/m 29,3 km/h (5 Bft) 94,29 %
08.03.2018 09:54 5,9 C 6,7 C 4,4 C 86 % 0 lf 1000,0 hPa 0,0 l/m 0 min 0 min 134 W/m 27,0 km/h (4 Bft) 97,87 %
08.03.2018 09:56 6,0 C 6,7 C 4,4 C 86 % 0 lf 999,9 hPa 0,0 l/m 0 min 0 min 169 W/m 27,0 km/h (4 Bft) 97,87 %
08.03.2018 09:58 6,0 C 7,2 C 5,0 C 86 % 0 lf 999,8 hPa 0,0 l/m 2 min 0 min 216 W/m 31,5 km/h (5 Bft) 97,87 %
08.03.2018 10:00 6,1 C 7,8 C 5,0 C 86 % 0 lf 999,9 hPa 0,0 l/m 2 min 0 min 261 W/m 27,0 km/h (4 Bft) 95,74 %
08.03.2018 10:02 6,1 C 8,3 C 5,6 C 86 % 0 lf 999,8 hPa 0,0 l/m 2 min 0 min 277 W/m 22,5 km/h (4 Bft) 97,83 %
08.03.2018 10:04 6,2 C 8,3 C 6,1 C 86 % 0 lf 999,8 hPa 0,0 l/m 2 min 0 min 278 W/m 22,5 km/h (4 Bft) 93,62 %
08.03.2018 10:06 6,2 C 8,9 C 6,1 C 86 % 0 lf 999,8 hPa 0,0 l/m 2 min 0 min 282 W/m 24,8 km/h (4 Bft) 95,74 %
08.03.2018 10:08 6,3 C 8,3 C 6,1 C 86 % 0 lf 999,7 hPa 0,0 l/m 2 min 0 min 254 W/m 27,0 km/h (4 Bft) 97,87 %
08.03.2018 10:10 6,4 C 8,9 C 6,1 C 86 % 0 lf 999,7 hPa 0,0 l/m 2 min 0 min 235 W/m 20,3 km/h (4 Bft) 93,62 %
08.03.2018 10:12 6,4 C 9,4 C 6,1 C 85 % 0 lf 999,7 hPa 0,0 l/m 2 min 0 min 279 W/m 38,3 km/h (5 Bft) 93,62 %
08.03.2018 10:14 6,6 C 10,0 C 7,8 C 86 % 0 lf 999,7 hPa 0,0 l/m 2 min 0 min 471 W/m 22,5 km/h (4 Bft) 97,87 %
08.03.2018 10:16 6,7 C 9,4 C 8,3 C 85 % 0 lf 999,7 hPa 0,0 l/m 2 min 0 min 394 W/m 31,5 km/h (5 Bft) 91,30 %
08.03.2018 10:18 6,8 C 10,0 C 8,9 C 85 % 0 lf 999,6 hPa 0,0 l/m 2 min 0 min 292 W/m 22,5 km/h (4 Bft) 95,74 %
08.03.2018 10:20 6,9 C 9,4 C 8,9 C 85 % 0 lf 999,6 hPa 0,0 l/m 2 min 0 min 301 W/m 20,3 km/h (4 Bft) 94,92 %
08.03.2018 10:22 6,9 C 9,4 C 8,3 C 85 % 0 lf 999,6 hPa 0,0 l/m 2 min 0 min 315 W/m 31,5 km/h (5 Bft) 97,14 %
08.03.2018 10:24 7,0 C 10,0 C 8,9 C 85 % 0 lf 999,6 hPa 0,0 l/m 2 min 0 min 397 W/m 31,5 km/h (5 Bft) 97,87 %
08.03.2018 10:26 7,1 C 9,4 C 8,3 C 84 % 0 lf 999,5 hPa 0,0 l/m 2 min 0 min 340 W/m 29,3 km/h (5 Bft) 97,83 %
08.03.2018 10:28 7,2 C 8,9 C 7,8 C 84 % 0 lf 999,5 hPa 0,0 l/m 2 min 0 min 230 W/m 24,8 km/h (4 Bft) 95,74 %
08.03.2018 10:30 7,2 C 8,3 C 7,8 C 84 % 0 lf 999,5 hPa 0,0 l/m 0 min 0 min 222 W/m 20,3 km/h (4 Bft) 95,74 %
08.03.2018 10:32 7,2 C 8,3 C 7,8 C 84 % 0 lf 999,5 hPa 0,0 l/m 0 min 0 min 223 W/m 29,3 km/h (5 Bft) 95,74 %
08.03.2018 10:34 7,3 C 8,3 C 7,8 C 84 % 0 lf 999,5 hPa 0,0 l/m 0 min 0 min 226 W/m 15,8 km/h (3 Bft) 95,74 %
08.03.2018 10:38 7,3 C 8,3 C 7,8 C 84 % 0 lf 999,5 hPa 0,0 l/m 4 min 0 min 250 W/m 27,0 km/h (4 Bft) 97,87 %
08.03.2018 10:40 7,4 C 8,9 C 8,3 C 84 % 0 lf 999,4 hPa 0,0 l/m 2 min 0 min 273 W/m 31,5 km/h (5 Bft) 97,83 %
08.03.2018 10:42 7,4 C 8,9 C 8,3 C 83 % 0 lf 999,4 hPa 0,0 l/m 2 min 0 min 289 W/m 18,0 km/h (3 Bft) 97,87 %
08.03.2018 10:44 7,4 C 9,4 C 8,3 C 83 % 0 lf 999,4 hPa 0,0 l/m 2 min 0 min 262 W/m 24,8 km/h (4 Bft) 95,74 %
08.03.2018 10:46 7,5 C 9,4 C 8,9 C 84 % 0 lf 999,4 hPa 0,0 l/m 2 min 0 min 246 W/m 18,0 km/h (3 Bft) 97,87 %
08.03.2018 10:48 7,6 C 9,4 C 8,9 C 84 % 0 lf 999,3 hPa 0,0 l/m 2 min 0 min 238 W/m 20,3 km/h (4 Bft) 95,74 %
08.03.2018 10:50 7,6 C 9,4 C 8,3 C 83 % 0 lf 999,3 hPa 0,0 l/m 0 min 0 min 238 W/m 20,3 km/h (4 Bft) 98,28 %
08.03.2018 10:52 7,7 C 8,9 C 8,3 C 83 % 0 lf 999,2 hPa 0,0 l/m 2 min 0 min 245 W/m 29,3 km/h (5 Bft) 97,14 %
08.03.2018 10:54 7,7 C 8,9 C 8,3 C 83 % 0 lf 999,2 hPa 0,0 l/m 0 min 0 min 237 W/m 38,3 km/h (5 Bft) 95,74 %
08.03.2018 10:56 7,7 C 8,9 C 8,3 C 82 % 0 lf 999,1 hPa 0,0 l/m 0 min 0 min 220 W/m 29,3 km/h (5 Bft) 95,74 %
08.03.2018 10:58 7,8 C 8,9 C 8,3 C 82 % 0 lf 999,2 hPa 0,0 l/m 0 min 0 min 203 W/m 27,0 km/h (4 Bft) 95,74 %
08.03.2018 11:00 7,8 C 8,9 C 8,3 C 83 % 0 lf 999,1 hPa 0,0 l/m 0 min 0 min 176 W/m 24,8 km/h (4 Bft) 93,62 %
08.03.2018 11:02 7,8 C 8,9 C 7,8 C 83 % 0 lf 999,1 hPa 0,0 l/m 0 min 0 min 152 W/m 22,5 km/h (4 Bft) 97,83 %
08.03.2018 11:04 7,9 C 8,3 C 7,8 C 82 % 0 lf 999,1 hPa 0,0 l/m 0 min 0 min 141 W/m 31,5 km/h (5 Bft) 95,74 %
08.03.2018 11:06 7,9 C 8,3 C 7,8 C 82 % 0 lf 999,1 hPa 0,0 l/m 0 min 0 min 142 W/m 36,0 km/h (5 Bft) 93,62 %
08.03.2018 11:08 7,9 C 8,3 C 7,8 C 82 % 0 lf 999,1 hPa 0,0 l/m 0 min 0 min 156 W/m 24,8 km/h (4 Bft) 95,74 %
08.03.2018 11:10 7,9 C 8,3 C 7,8 C 82 % 0 lf 999,1 hPa 0,0 l/m 0 min 0 min 172 W/m 20,3 km/h (4 Bft) 100,00 %
08.03.2018 11:12 7,9 C 8,3 C 7,8 C 82 % 0 lf 999,0 hPa 0,0 l/m 0 min 0 min 179 W/m 18,0 km/h (3 Bft) 100,00 %
08.03.2018 11:14 7,9 C 8,3 C 8,3 C 82 % 0 lf 999,1 hPa 0,0 l/m 0 min 0 min 179 W/m 29,3 km/h (5 Bft) 100,00 %
08.03.2018 11:16 7,9 C 8,3 C 8,3 C 82 % 0 lf 999,0 hPa 0,0 l/m 0 min 0 min 181 W/m 20,3 km/h (4 Bft) 100,00 %
08.03.2018 11:18 7,9 C 8,9 C 8,3 C 82 % 0 lf 999,0 hPa 0,0 l/m 0 min 0 min 174 W/m 22,5 km/h (4 Bft) 95,74 %
08.03.2018 11:20 8,0 C 8,9 C 8,3 C 82 % 0 lf 999,0 hPa 0,0 l/m 0 min 0 min 184 W/m 24,8 km/h (4 Bft) 96,61 %
08.03.2018 11:22 8,0 C 8,9 C 8,3 C 82 % 0 lf 999,0 hPa 0,0 l/m 0 min 0 min 180 W/m 15,8 km/h (3 Bft) 97,14 %
08.03.2018 11:24 8,1 C 8,9 C 8,3 C 82 % 0 lf 998,9 hPa 0,0 l/m 0 min 0 min 182 W/m 22,5 km/h (4 Bft) 93,62 %
08.03.2018 11:26 8,1 C 8,9 C 8,3 C 82 % 0 lf 999,0 hPa 0,0 l/m 0 min 0 min 191 W/m 36,0 km/h (5 Bft) 93,48 %
08.03.2018 11:28 8,1 C 9,4 C 8,3 C 82 % 0 lf 998,9 hPa 0,0 l/m 0 min 0 min 193 W/m 31,5 km/h (5 Bft) 95,74 %
08.03.2018 11:30 8,2 C 9,4 C 8,9 C 82 % 0 lf 998,9 hPa 0,0 l/m 0 min 0 min 183 W/m 33,8 km/h (5 Bft) 95,74 %
08.03.2018 11:32 8,2 C 9,4 C 8,3 C 81 % 0 lf 999,0 hPa 0,0 l/m 0 min 0 min 191 W/m 40,6 km/h (6 Bft) 93,62 %
08.03.2018 11:34 8,3 C 10,0 C 8,9 C 81 % 0 lf 998,9 hPa 0,0 l/m 0 min 0 min 246 W/m 36,0 km/h (5 Bft) 93,62 %
08.03.2018 11:36 8,3 C 10,6 C 9,4 C 80 % 0 lf 998,9 hPa 0,0 l/m 2 min 0 min 332 W/m 33,8 km/h (5 Bft) 95,65 %
08.03.2018 11:38 8,4 C 10,6 C 9,4 C 80 % 0 lf 998,8 hPa 0,0 l/m 2 min 0 min 312 W/m 42,8 km/h (6 Bft) 95,74 %
08.03.2018 11:40 8,5 C 10,0 C 9,4 C 80 % 0 lf 998,8 hPa 0,0 l/m 2 min 0 min 279 W/m 36,0 km/h (5 Bft) 95,74 %
08.03.2018 11:42 8,6 C 10,0 C 9,4 C 79 % 0 lf 998,7 hPa 0,0 l/m 0 min 0 min 261 W/m 36,0 km/h (5 Bft) 95,74 %
08.03.2018 11:44 8,6 C 10,0 C 9,4 C 79 % 0 lf 998,8 hPa 0,0 l/m 0 min 0 min 249 W/m 36,0 km/h (5 Bft) 95,74 %
08.03.2018 11:46 8,7 C 10,0 C 8,9 C 78 % 0 lf 998,8 hPa 0,0 l/m 0 min 0 min 227 W/m 45,1 km/h (6 Bft) 95,74 %
08.03.2018 11:48 8,7 C 10,0 C 9,4 C 79 % 0 lf 998,8 hPa 0,0 l/m 0 min 0 min 259 W/m 38,3 km/h (5 Bft) 91,30 %
08.03.2018 11:50 8,7 C 9,4 C 8,9 C 78 % 0 lf 998,7 hPa 0,0 l/m 0 min 0 min 189 W/m 36,0 km/h (5 Bft) 94,92 %
08.03.2018 11:52 8,7 C 9,4 C 8,9 C 78 % 0 lf 998,7 hPa 0,0 l/m 0 min 2 min 229 W/m 40,6 km/h (6 Bft) 94,29 %
08.03.2018 11:54 8,7 C 9,4 C 8,9 C 78 % 1 lf 998,7 hPa 0,0 l/m 0 min 2 min 243 W/m 45,1 km/h (6 Bft) 95,74 %
08.03.2018 11:56 8,8 C 9,4 C 8,9 C 78 % 0 lf 998,6 hPa 0,0 l/m 0 min 2 min 253 W/m 40,6 km/h (6 Bft) 95,74 %
08.03.2018 11:58 8,8 C 9,4 C 8,3 C 79 % 0 lf 998,6 hPa 0,0 l/m 0 min 0 min 213 W/m 36,0 km/h (5 Bft) 100,00 %
08.03.2018 12:00 8,8 C 9,4 C 8,9 C 79 % 0 lf 998,6 hPa 0,0 l/m 0 min 0 min 235 W/m 29,3 km/h (5 Bft) 95,65 %
08.03.2018 12:02 8,8 C 10,0 C 8,9 C 79 % 0 lf 998,5 hPa 0,0 l/m 0 min 0 min 240 W/m 42,8 km/h (6 Bft) 97,87 %
08.03.2018 12:04 8,8 C 10,0 C 9,4 C 79 % 0 lf 998,5 hPa 0,0 l/m 0 min 0 min 232 W/m 33,8 km/h (5 Bft) 97,87 %
08.03.2018 12:06 8,8 C 10,0 C 9,4 C 78 % 0 lf 998,6 hPa 0,0 l/m 0 min 0 min 220 W/m 31,5 km/h (5 Bft) 93,75 %
08.03.2018 12:08 8,9 C 10,0 C 9,4 C 78 % 0 lf 998,5 hPa 0,0 l/m 0 min 0 min 218 W/m 36,0 km/h (5 Bft) 97,87 %
08.03.2018 12:10 8,9 C 10,0 C 8,9 C 78 % 0 lf 998,5 hPa 0,0 l/m 0 min 0 min 179 W/m 31,5 km/h (5 Bft) 97,87 %
08.03.2018 12:12 8,9 C 9,4 C 8,9 C 78 % 0 lf 998,5 hPa 0,0 l/m 0 min 0 min 126 W/m 29,3 km/h (5 Bft) 95,65 %
08.03.2018 12:14 8,9 C 9,4 C 8,9 C 78 % 0 lf 998,5 hPa 0,0 l/m 0 min 0 min 126 W/m 36,0 km/h (5 Bft) 95,74 %
08.03.2018 12:16 8,9 C 9,4 C 8,9 C 78 % 0 lf 998,4 hPa 0,0 l/m 0 min 0 min 134 W/m 22,5 km/h (4 Bft) 95,74 %
08.03.2018 12:18 9,0 C 10,0 C 8,9 C 78 % 0 lf 998,4 hPa 0,0 l/m 0 min 0 min 153 W/m 36,0 km/h (5 Bft) 97,87 %
08.03.2018 12:20 9,0 C 10,0 C 8,9 C 78 % 0 lf 998,4 hPa 0,0 l/m 0 min 0 min 141 W/m 24,8 km/h (4 Bft) 94,83 %
08.03.2018 12:22 9,0 C 10,0 C 8,9 C 78 % 0 lf 998,4 hPa 0,0 l/m 0 min 0 min 105 W/m 42,8 km/h (6 Bft) 97,22 %
08.03.2018 12:24 9,0 C 9,4 C 8,3 C 77 % 0 lf 998,4 hPa 0,0 l/m 0 min 0 min 119 W/m 45,1 km/h (6 Bft) 97,83 %
08.03.2018 12:26 9,1 C 9,4 C 8,3 C 77 % 0 lf 998,3 hPa 0,0 l/m 0 min 0 min 95 W/m 42,8 km/h (6 Bft) 95,74 %
08.03.2018 12:28 9,1 C 9,4 C 8,3 C 77 % 0 lf 998,4 hPa 0,0 l/m 0 min 0 min 93 W/m 40,6 km/h (6 Bft) 97,87 %
08.03.2018 12:30 9,1 C 9,4 C 7,8 C 77 % 7 lf 998,3 hPa 0,0 l/m 0 min 0 min 62 W/m 51,8 km/h (7 Bft) 97,87 %
08.03.2018 12:32 9,1 C 8,9 C 7,2 C 77 % 2 lf 998,3 hPa 0,0 l/m 0 min 2 min 61 W/m 33,8 km/h (5 Bft) 95,74 %
08.03.2018 12:34 9,1 C 8,9 C 7,2 C 77 % 2 lf 998,3 hPa 0,0 l/m 0 min 2 min 69 W/m 22,5 km/h (4 Bft) 97,83 %
08.03.2018 12:36 9,1 C 8,9 C 7,2 C 77 % 0 lf 998,3 hPa 0,0 l/m 0 min 0 min 91 W/m 24,8 km/h (4 Bft) 97,87 %
08.03.2018 12:38 9,1 C 8,9 C 7,2 C 77 % 0 lf 998,2 hPa 0,0 l/m 0 min 0 min 89 W/m 20,3 km/h (4 Bft) 97,87 %
08.03.2018 12:40 9,1 C 9,4 C 7,2 C 77 % 0 lf 998,1 hPa 0,0 l/m 0 min 0 min 84 W/m 33,8 km/h (5 Bft) 91,49 %
08.03.2018 12:42 9,1 C 9,4 C 7,8 C 77 % 0 lf 998,1 hPa 0,0 l/m 0 min 0 min 97 W/m 42,8 km/h (6 Bft) 95,74 %
08.03.2018 12:44 9,1 C 8,3 C 6,7 C 77 % 7 lf 998,1 hPa 0,0 l/m 0 min 2 min 71 W/m 38,3 km/h (5 Bft) 95,74 %
08.03.2018 12:46 9,1 C 7,8 C 6,7 C 77 % 14 lf 998,1 hPa 0,0 l/m 0 min 2 min 55 W/m 36,0 km/h (5 Bft) 97,83 %
08.03.2018 12:48 9,1 C 7,2 C 6,1 C 78 % 15 lf 998,2 hPa 0,0 l/m 0 min 2 min 46 W/m 29,3 km/h (5 Bft) 97,87 %
08.03.2018 12:50 9,0 C 6,7 C 5,6 C 78 % 15 lf 998,1 hPa 0,0 l/m 0 min 2 min 60 W/m 31,5 km/h (5 Bft) 98,31 %
08.03.2018 12:52 8,9 C 6,7 C 5,6 C 79 % 15 lf 998,0 hPa 0,0 l/m 0 min 2 min 69 W/m 40,6 km/h (6 Bft) 94,29 %
08.03.2018 12:54 8,9 C 6,7 C 5,6 C 80 % 15 lf 998,1 hPa 0,0 l/m 0 min 2 min 70 W/m 24,8 km/h (4 Bft) 97,87 %
08.03.2018 12:56 8,8 C 6,7 C 5,6 C 81 % 15 lf 998,1 hPa 0,0 l/m 0 min 2 min 78 W/m 27,0 km/h (4 Bft) 95,74 %
08.03.2018 12:58 8,7 C 6,7 C 5,6 C 81 % 15 lf 998,1 hPa 0,2 l/m 0 min 2 min 78 W/m 33,8 km/h (5 Bft) 95,65 %
08.03.2018 13:00 8,6 C 6,7 C 5,6 C 81 % 15 lf 998,2 hPa 0,0 l/m 0 min 2 min 58 W/m 20,3 km/h (4 Bft) 97,87 %
08.03.2018 13:02 8,6 C 6,7 C 5,6 C 82 % 15 lf 998,2 hPa 0,0 l/m 0 min 2 min 54 W/m 38,3 km/h (5 Bft) 97,87 %
08.03.2018 13:04 8,5 C 6,7 C 5,6 C 82 % 15 lf 998,2 hPa 0,0 l/m 0 min 2 min 55 W/m 31,5 km/h (5 Bft) 100,00 %
08.03.2018 13:06 8,4 C 6,1 C 5,6 C 83 % 15 lf 998,1 hPa 0,0 l/m 0 min 2 min 57 W/m 51,8 km/h (7 Bft) 95,74 %
08.03.2018 13:08 8,3 C 6,1 C 5,6 C 83 % 15 lf 998,1 hPa 0,0 l/m 0 min 2 min 66 W/m 33,8 km/h (5 Bft) 100,00 %
08.03.2018 13:10 8,3 C 6,1 C 5,6 C 83 % 15 lf 998,0 hPa 0,0 l/m 0 min 2 min 76 W/m 29,3 km/h (5 Bft) 100,00 %
08.03.2018 13:12 8,3 C 6,7 C 5,6 C 83 % 15 lf 998,0 hPa 0,0 l/m 0 min 2 min 72 W/m 31,5 km/h (5 Bft) 97,87 %
08.03.2018 13:14 8,3 C 6,7 C 5,6 C 83 % 15 lf 998,0 hPa 0,0 l/m 0 min 2 min 81 W/m 33,8 km/h (5 Bft) 97,87 %
08.03.2018 13:16 8,2 C 6,7 C 5,6 C 83 % 15 lf 998,1 hPa 0,0 l/m 0 min 2 min 82 W/m 29,3 km/h (5 Bft) 95,74 %
08.03.2018 13:18 8,2 C 6,1 C 5,6 C 83 % 15 lf 998,1 hPa 0,0 l/m 0 min 2 min 71 W/m 27,0 km/h (4 Bft) 100,00 %
08.03.2018 13:20 8,2 C 6,1 C 5,6 C 83 % 15 lf 998,1 hPa 0,0 l/m 0 min 2 min 77 W/m 29,3 km/h (5 Bft) 97,87 %
08.03.2018 13:22 8,2 C 6,1 C 5,6 C 83 % 15 lf 998,1 hPa 0,2 l/m 0 min 2 min 68 W/m 31,5 km/h (5 Bft) 95,65 %
08.03.2018 13:24 8,2 C 6,1 C 5,6 C 83 % 15 lf 998,1 hPa 0,0 l/m 0 min 2 min 61 W/m 33,8 km/h (5 Bft) 97,87 %
08.03.2018 13:26 8,2 C 6,1 C 5,6 C 84 % 15 lf 998,2 hPa 0,0 l/m 0 min 2 min 69 W/m 38,3 km/h (5 Bft) 93,62 %
08.03.2018 13:28 8,2 C 6,1 C 5,6 C 84 % 15 lf 998,1 hPa 0,0 l/m 0 min 2 min 67 W/m 27,0 km/h (4 Bft) 95,74 %
08.03.2018 13:30 8,1 C 6,1 C 5,6 C 84 % 15 lf 998,2 hPa 0,0 l/m 0 min 2 min 80 W/m 24,8 km/h (4 Bft) 93,62 %
08.03.2018 13:32 8,1 C 6,1 C 5,6 C 84 % 15 lf 998,1 hPa 0,0 l/m 0 min 2 min 124 W/m 33,8 km/h (5 Bft) 95,74 %
08.03.2018 13:34 8,1 C 6,1 C 5,6 C 85 % 15 lf 998,0 hPa 0,2 l/m 0 min 2 min 148 W/m 29,3 km/h (5 Bft) 93,48 %
08.03.2018 13:36 8,1 C 6,7 C 5,6 C 85 % 15 lf 998,1 hPa 0,0 l/m 0 min 0 min 133 W/m 20,3 km/h (4 Bft) 95,74 %
08.03.2018 13:38 8,0 C 6,7 C 6,1 C 86 % 15 lf 998,0 hPa 0,0 l/m 0 min 2 min 113 W/m 20,3 km/h (4 Bft) 95,74 %
08.03.2018 13:40 8,0 C 6,7 C 6,1 C 86 % 15 lf 998,0 hPa 0,0 l/m 0 min 2 min 96 W/m 18,0 km/h (3 Bft) 95,74 %
08.03.2018 13:42 8,0 C 6,1 C 5,6 C 86 % 15 lf 998,1 hPa 0,0 l/m 0 min 2 min 89 W/m 24,8 km/h (4 Bft) 91,49 %
08.03.2018 13:44 7,9 C 6,1 C 5,6 C 86 % 15 lf 998,0 hPa 0,0 l/m 0 min 2 min 96 W/m 33,8 km/h (5 Bft) 95,74 %
08.03.2018 13:46 7,9 C 6,1 C 5,6 C 86 % 15 lf 998,1 hPa 0,0 l/m 0 min 2 min 87 W/m 27,0 km/h (4 Bft) 93,48 %
08.03.2018 13:48 7,9 C 6,1 C 5,6 C 87 % 15 lf 998,0 hPa 0,0 l/m 0 min 2 min 74 W/m 38,3 km/h (5 Bft) 91,49 %
08.03.2018 13:50 7,8 C 6,1 C 5,6 C 87 % 15 lf 998,0 hPa 0,0 l/m 0 min 2 min 66 W/m 31,5 km/h (5 Bft) 96,61 %
08.03.2018 13:52 7,8 C 6,1 C 5,6 C 87 % 15 lf 998,0 hPa 0,0 l/m 0 min 2 min 65 W/m 36,0 km/h (5 Bft) 94,29 %
08.03.2018 13:54 7,7 C 6,1 C 5,6 C 87 % 15 lf 998,0 hPa 0,2 l/m 0 min 2 min 62 W/m 20,3 km/h (4 Bft) 95,74 %
08.03.2018 13:56 7,7 C 6,1 C 5,6 C 87 % 15 lf 998,0 hPa 0,0 l/m 0 min 2 min 63 W/m 20,3 km/h (4 Bft) 95,65 %
08.03.2018 13:58 7,7 C 6,1 C 5,6 C 87 % 15 lf 998,1 hPa 0,0 l/m 0 min 2 min 53 W/m 29,3 km/h (5 Bft) 97,87 %
08.03.2018 14:00 7,6 C 6,1 C 5,0 C 88 % 15 lf 997,9 hPa 0,0 l/m 0 min 2 min 61 W/m 31,5 km/h (5 Bft) 97,87 %
08.03.2018 14:02 7,6 C 6,1 C 5,6 C 88 % 15 lf 997,9 hPa 0,2 l/m 0 min 2 min 67 W/m 22,5 km/h (4 Bft) 95,74 %
08.03.2018 14:04 7,6 C 6,1 C 5,6 C 88 % 15 lf 997,9 hPa 0,0 l/m 0 min 2 min 84 W/m 27,0 km/h (4 Bft) 97,87 %
08.03.2018 14:06 7,6 C 6,1 C 5,6 C 88 % 15 lf 997,9 hPa 0,0 l/m 0 min 2 min 120 W/m 20,3 km/h (4 Bft) 93,62 %
08.03.2018 14:08 7,5 C 6,1 C 5,6 C 89 % 15 lf 997,8 hPa 0,0 l/m 0 min 2 min 104 W/m 22,5 km/h (4 Bft) 100,00 %
08.03.2018 14:10 7,5 C 6,1 C 5,6 C 89 % 15 lf 997,8 hPa 0,0 l/m 0 min 2 min 79 W/m 15,8 km/h (3 Bft) 100,00 %
08.03.2018 14:12 7,5 C 6,1 C 5,6 C 89 % 15 lf 997,9 hPa 0,2 l/m 0 min 2 min 73 W/m 27,0 km/h (4 Bft) 100,00 %
08.03.2018 14:14 7,4 C 6,1 C 5,6 C 89 % 15 lf 997,8 hPa 0,0 l/m 0 min 2 min 73 W/m 20,3 km/h (4 Bft) 100,00 %
08.03.2018 14:16 7,4 C 6,1 C 5,6 C 90 % 15 lf 997,9 hPa 0,0 l/m 0 min 2 min 74 W/m 20,3 km/h (4 Bft) 100,00 %
08.03.2018 14:18 7,4 C 6,1 C 5,6 C 90 % 15 lf 997,9 hPa 0,0 l/m 0 min 2 min 75 W/m 24,8 km/h (4 Bft) 97,87 %
08.03.2018 14:20 7,4 C 6,1 C 5,6 C 90 % 15 lf 997,8 hPa 0,2 l/m 0 min 2 min 70 W/m 18,0 km/h (3 Bft) 100,00 %
08.03.2018 14:22 7,4 C 6,1 C 5,6 C 90 % 15 lf 997,9 hPa 0,0 l/m 0 min 2 min 76 W/m 20,3 km/h (4 Bft) 97,14 %
08.03.2018 14:24 7,3 C 6,1 C 5,6 C 90 % 15 lf 997,8 hPa 0,0 l/m 0 min 2 min 69 W/m 20,3 km/h (4 Bft) 100,00 %
08.03.2018 14:26 7,3 C 6,1 C 5,6 C 90 % 15 lf 997,8 hPa 0,0 l/m 0 min 2 min 52 W/m 22,5 km/h (4 Bft) 100,00 %
08.03.2018 14:28 7,3 C 6,1 C 5,6 C 90 % 15 lf 997,7 hPa 0,0 l/m 0 min 2 min 56 W/m 24,8 km/h (4 Bft) 97,87 %
08.03.2018 14:30 7,3 C 6,1 C 5,6 C 90 % 15 lf 997,8 hPa 0,2 l/m 0 min 2 min 64 W/m 33,8 km/h (5 Bft) 95,74 %
08.03.2018 14:32 7,2 C 6,1 C 5,6 C 91 % 15 lf 997,8 hPa 0,0 l/m 0 min 2 min 64 W/m 15,8 km/h (3 Bft) 97,83 %
08.03.2018 14:34 7,2 C 6,1 C 5,6 C 91 % 15 lf 997,9 hPa 0,0 l/m 0 min 2 min 58 W/m 31,5 km/h (5 Bft) 97,87 %
08.03.2018 14:36 7,2 C 6,1 C 5,6 C 91 % 15 lf 997,8 hPa 0,2 l/m 0 min 2 min 62 W/m 31,5 km/h (5 Bft) 100,00 %
08.03.2018 14:38 7,2 C 6,1 C 5,6 C 91 % 15 lf 997,8 hPa 0,0 l/m 0 min 2 min 80 W/m 29,3 km/h (5 Bft) 100,00 %
08.03.2018 14:40 7,2 C 6,1 C 5,6 C 91 % 15 lf 997,6 hPa 0,0 l/m 0 min 2 min 86 W/m 29,3 km/h (5 Bft) 100,00 %
08.03.2018 14:42 7,1 C 6,1 C 5,6 C 91 % 15 lf 997,6 hPa 0,0 l/m 0 min 2 min 68 W/m 24,8 km/h (4 Bft) 97,87 %
08.03.2018 14:44 7,1 C 5,6 C 5,0 C 91 % 15 lf 997,8 hPa 0,0 l/m 0 min 2 min 43 W/m 31,5 km/h (5 Bft) 97,83 %
08.03.2018 14:46 7,0 C 5,6 C 5,0 C 91 % 15 lf 997,7 hPa 0,0 l/m 0 min 2 min 35 W/m 33,8 km/h (5 Bft) 97,87 %
08.03.2018 14:48 6,9 C 5,6 C 5,0 C 91 % 15 lf 997,8 hPa 0,2 l/m 0 min 2 min 43 W/m 40,6 km/h (6 Bft) 100,00 %
08.03.2018 14:50 6,9 C 5,6 C 5,0 C 91 % 15 lf 997,9 hPa 0,0 l/m 0 min 2 min 49 W/m 24,8 km/h (4 Bft) 96,61 %
08.03.2018 14:52 6,8 C 5,6 C 5,0 C 91 % 15 lf 997,9 hPa 0,0 l/m 0 min 2 min 50 W/m 38,3 km/h (5 Bft) 97,14 %
08.03.2018 14:54 6,8 C 5,6 C 5,0 C 91 % 15 lf 997,9 hPa 0,2 l/m 0 min 2 min 58 W/m 40,6 km/h (6 Bft) 97,87 %
08.03.2018 14:56 6,8 C 5,6 C 5,0 C 91 % 15 lf 997,8 hPa 0,0 l/m 0 min 2 min 78 W/m 22,5 km/h (4 Bft) 97,83 %
08.03.2018 14:58 6,7 C 5,6 C 5,0 C 91 % 15 lf 997,8 hPa 0,0 l/m 0 min 2 min 92 W/m 33,8 km/h (5 Bft) 97,87 %
08.03.2018 15:00 6,7 C 5,6 C 5,0 C 92 % 15 lf 997,8 hPa 0,0 l/m 0 min 2 min 91 W/m 29,3 km/h (5 Bft) 95,74 %
08.03.2018 15:02 6,7 C 5,6 C 5,0 C 91 % 15 lf 997,8 hPa 0,0 l/m 0 min 2 min 96 W/m 27,0 km/h (4 Bft) 97,87 %
08.03.2018 15:04 6,6 C 5,6 C 5,0 C 92 % 15 lf 997,8 hPa 0,2 l/m 0 min 2 min 90 W/m 27,0 km/h (4 Bft) 95,74 %
08.03.2018 15:06 6,6 C 5,6 C 5,0 C 92 % 15 lf 997,8 hPa 0,0 l/m 0 min 2 min 82 W/m 24,8 km/h (4 Bft) 97,83 %
08.03.2018 15:08 6,6 C 5,6 C 5,0 C 92 % 15 lf 997,8 hPa 0,0 l/m 0 min 2 min 86 W/m 27,0 km/h (4 Bft) 95,74 %
08.03.2018 15:10 6,6 C 5,6 C 5,0 C 92 % 15 lf 997,6 hPa 0,2 l/m 0 min 2 min 103 W/m 18,0 km/h (3 Bft) 93,62 %
08.03.2018 15:12 6,6 C 5,6 C 5,0 C 92 % 15 lf 997,6 hPa 0,0 l/m 0 min 2 min 111 W/m 22,5 km/h (4 Bft) 91,49 %
08.03.2018 15:14 6,5 C 5,6 C 5,0 C 92 % 15 lf 997,5 hPa 0,0 l/m 0 min 2 min 102 W/m 22,5 km/h (4 Bft) 91,49 %
08.03.2018 15:16 6,5 C 5,6 C 5,0 C 92 % 15 lf 997,4 hPa 0,0 l/m 0 min 0 min 105 W/m 22,5 km/h (4 Bft) 95,74 %
08.03.2018 15:18 6,5 C 5,6 C 5,0 C 92 % 15 lf 997,4 hPa 0,0 l/m 0 min 2 min 93 W/m 27,0 km/h (4 Bft) 93,48 %
08.03.2018 15:20 6,5 C 5,6 C 5,0 C 92 % 15 lf 997,4 hPa 0,2 l/m 0 min 2 min 76 W/m 22,5 km/h (4 Bft) 93,22 %
08.03.2018 15:22 6,5 C 5,6 C 5,0 C 92 % 15 lf 997,4 hPa 0,0 l/m 0 min 2 min 82 W/m 24,8 km/h (4 Bft) 94,29 %
08.03.2018 15:24 6,5 C 5,6 C 5,0 C 92 % 15 lf 997,4 hPa 0,0 l/m 0 min 2 min 79 W/m 20,3 km/h (4 Bft) 91,49 %
08.03.2018 15:26 6,5 C 5,6 C 5,0 C 92 % 15 lf 997,3 hPa 0,2 l/m 0 min 2 min 56 W/m 24,8 km/h (4 Bft) 93,62 %
08.03.2018 15:28 6,5 C 5,6 C 5,0 C 92 % 15 lf 997,3 hPa 0,0 l/m 0 min 2 min 47 W/m 24,8 km/h (4 Bft) 93,62 %
08.03.2018 15:30 6,5 C 5,6 C 5,0 C 93 % 15 lf 997,3 hPa 0,0 l/m 0 min 2 min 53 W/m 20,3 km/h (4 Bft) 93,48 %
08.03.2018 15:32 6,5 C 5,6 C 5,0 C 93 % 15 lf 997,3 hPa 0,0 l/m 0 min 2 min 70 W/m 24,8 km/h (4 Bft) 95,74 %
08.03.2018 15:34 6,5 C 5,6 C 5,0 C 93 % 15 lf 997,3 hPa 0,0 l/m 0 min 2 min 78 W/m 18,0 km/h (3 Bft) 93,62 %
08.03.2018 15:36 6,5 C 6,1 C 5,0 C 93 % 15 lf 997,4 hPa 0,0 l/m 0 min 2 min 73 W/m 15,8 km/h (3 Bft) 91,49 %
08.03.2018 15:38 6,5 C 6,1 C 5,0 C 93 % 15 lf 997,3 hPa 0,2 l/m 0 min 2 min 76 W/m 20,3 km/h (4 Bft) 91,49 %
08.03.2018 15:40 6,6 C 5,6 C 5,0 C 93 % 15 lf 997,3 hPa 0,0 l/m 0 min 2 min 69 W/m 29,3 km/h (5 Bft) 91,49 %
08.03.2018 15:42 6,5 C 6,1 C 5,0 C 93 % 15 lf 997,2 hPa 0,0 l/m 0 min 2 min 80 W/m 24,8 km/h (4 Bft) 91,30 %
08.03.2018 15:44 6,5 C 6,1 C 5,0 C 93 % 15 lf 997,0 hPa 0,0 l/m 0 min 0 min 88 W/m 18,0 km/h (3 Bft) 91,49 %
08.03.2018 15:46 6,6 C 6,1 C 5,0 C 93 % 15 lf 997,1 hPa 0,2 l/m 0 min 2 min 109 W/m 29,3 km/h (5 Bft) 91,49 %
08.03.2018 15:48 6,6 C 6,1 C 5,6 C 93 % 15 lf 997,0 hPa 0,0 l/m 0 min 0 min 152 W/m 24,8 km/h (4 Bft) 91,49 %
08.03.2018 15:50 6,6 C 6,7 C 6,1 C 93 % 15 lf 996,7 hPa 0,0 l/m 2 min 0 min 190 W/m 22,5 km/h (4 Bft) 93,62 %
08.03.2018 15:52 6,6 C 6,7 C 6,1 C 93 % 15 lf 996,7 hPa 0,0 l/m 2 min 2 min 193 W/m 29,3 km/h (5 Bft) 91,49 %
08.03.2018 15:54 6,7 C 6,1 C 5,6 C 93 % 15 lf 996,7 hPa 0,0 l/m 0 min 2 min 135 W/m 22,5 km/h (4 Bft) 93,48 %
08.03.2018 15:56 6,7 C 6,1 C 5,6 C 93 % 15 lf 996,9 hPa 0,0 l/m 0 min 2 min 97 W/m 18,0 km/h (3 Bft) 100,00 %
08.03.2018 15:58 6,7 C 6,1 C 5,6 C 93 % 15 lf 996,8 hPa 0,0 l/m 0 min 2 min 49 W/m 42,8 km/h (6 Bft) 100,00 %
08.03.2018 16:00 6,7 C 6,1 C 5,0 C 93 % 15 lf 996,9 hPa 0,2 l/m 0 min 2 min 29 W/m 31,5 km/h (5 Bft) 100,00 %
08.03.2018 16:02 6,7 C 6,1 C 5,0 C 93 % 15 lf 996,9 hPa 0,0 l/m 0 min 2 min 23 W/m 40,6 km/h (6 Bft) 95,74 %
08.03.2018 16:04 6,7 C 6,1 C 5,0 C 93 % 15 lf 996,9 hPa 0,0 l/m 0 min 2 min 25 W/m 29,3 km/h (5 Bft) 91,49 %
08.03.2018 16:06 6,7 C 5,6 C 5,0 C 93 % 15 lf 997,0 hPa 0,0 l/m 0 min 2 min 25 W/m 29,3 km/h (5 Bft) 95,65 %
08.03.2018 16:08 6,7 C 5,6 C 5,0 C 93 % 15 lf 997,0 hPa 0,0 l/m 0 min 2 min 30 W/m 36,0 km/h (5 Bft) 97,87 %
08.03.2018 16:10 6,7 C 5,6 C 5,0 C 93 % 15 lf 997,0 hPa 0,0 l/m 0 min 2 min 29 W/m 38,3 km/h (5 Bft) 95,74 %
08.03.2018 16:12 6,7 C 5,6 C 5,0 C 93 % 15 lf 997,1 hPa 0,0 l/m 0 min 2 min 36 W/m 36,0 km/h (5 Bft) 97,87 %
08.03.2018 16:14 6,7 C 6,1 C 5,0 C 93 % 15 lf 997,0 hPa 0,0 l/m 0 min 2 min 42 W/m 33,8 km/h (5 Bft) 97,87 %
08.03.2018 16:16 6,7 C 5,6 C 5,0 C 93 % 15 lf 997,1 hPa 0,2 l/m 0 min 2 min 25 W/m 40,6 km/h (6 Bft) 95,65 %
08.03.2018 16:18 6,7 C 5,6 C 5,0 C 92 % 15 lf 997,1 hPa 0,0 l/m 0 min 2 min 23 W/m 42,8 km/h (6 Bft) 95,74 %
08.03.2018 16:20 6,7 C 5,6 C 5,0 C 92 % 15 lf 997,1 hPa 0,0 l/m 0 min 2 min 25 W/m 47,3 km/h (6 Bft) 97,87 %
08.03.2018 16:22 6,8 C 5,6 C 5,0 C 92 % 15 lf 997,2 hPa 0,0 l/m 0 min 2 min 36 W/m 38,3 km/h (5 Bft) 95,74 %
08.03.2018 16:24 6,8 C 5,6 C 5,0 C 91 % 15 lf 997,3 hPa 0,0 l/m 0 min 2 min 34 W/m 54,1 km/h (7 Bft) 97,87 %
08.03.2018 16:26 6,8 C 5,6 C 5,0 C 91 % 14 lf 997,3 hPa 0,0 l/m 0 min 2 min 27 W/m 51,8 km/h (7 Bft) 97,87 %
08.03.2018 16:28 6,8 C 5,6 C 5,0 C 90 % 13 lf 997,2 hPa 0,0 l/m 0 min 2 min 32 W/m 38,3 km/h (5 Bft) 97,87 %
08.03.2018 16:30 6,8 C 5,6 C 5,0 C 90 % 12 lf 997,3 hPa 0,0 l/m 0 min 2 min 41 W/m 38,3 km/h (5 Bft) 97,83 %
08.03.2018 16:32 6,8 C 5,6 C 5,0 C 90 % 10 lf 997,2 hPa 0,0 l/m 0 min 2 min 46 W/m 27,0 km/h (4 Bft) 97,87 %
08.03.2018 16:34 6,8 C 5,6 C 4,4 C 90 % 9 lf 997,2 hPa 0,0 l/m 0 min 0 min 47 W/m 31,5 km/h (5 Bft) 93,62 %
08.03.2018 16:36 6,7 C 5,6 C 4,4 C 89 % 5 lf 997,3 hPa 0,0 l/m 0 min 0 min 49 W/m 36,0 km/h (5 Bft) 97,87 %
08.03.2018 16:38 6,7 C 5,6 C 4,4 C 89 % 4 lf 997,3 hPa 0,0 l/m 0 min 0 min 53 W/m 27,0 km/h (4 Bft) 95,74 %
08.03.2018 16:40 6,7 C 5,6 C 4,4 C 89 % 3 lf 997,3 hPa 0,0 l/m 0 min 0 min 59 W/m 33,8 km/h (5 Bft) 97,83 %
08.03.2018 16:42 6,7 C 5,6 C 4,4 C 88 % 3 lf 997,4 hPa 0,0 l/m 0 min 2 min 55 W/m 31,5 km/h (5 Bft) 97,87 %
08.03.2018 16:44 6,7 C 5,6 C 4,4 C 88 % 2 lf 997,2 hPa 0,0 l/m 0 min 0 min 47 W/m 33,8 km/h (5 Bft) 97,87 %
08.03.2018 16:46 6,7 C 5,6 C 4,4 C 88 % 1 lf 997,3 hPa 0,0 l/m 0 min 0 min 55 W/m 38,3 km/h (5 Bft) 95,74 %
08.03.2018 16:48 6,6 C 5,6 C 4,4 C 88 % 1 lf 997,3 hPa 0,0 l/m 0 min 0 min 65 W/m 40,6 km/h (6 Bft) 100,00 %
08.03.2018 16:50 6,6 C 5,6 C 4,4 C 87 % 0 lf 997,4 hPa 0,0 l/m 0 min 0 min 69 W/m 24,8 km/h (4 Bft) 100,00 %
08.03.2018 16:52 6,6 C 5,6 C 4,4 C 87 % 0 lf 997,4 hPa 0,0 l/m 0 min 0 min 66 W/m 29,3 km/h (5 Bft) 97,83 %
08.03.2018 16:54 6,6 C 5,6 C 4,4 C 87 % 0 lf 997,4 hPa 0,0 l/m 0 min 0 min 60 W/m 27,0 km/h (4 Bft) 100,00 %
08.03.2018 16:56 6,6 C 5,6 C 4,4 C 87 % 0 lf 997,4 hPa 0,0 l/m 0 min 0 min 56 W/m 29,3 km/h (5 Bft) 97,87 %
08.03.2018 16:58 6,6 C 5,6 C 4,4 C 87 % 0 lf 997,5 hPa 0,0 l/m 0 min 0 min 62 W/m 29,3 km/h (5 Bft) 100,00 %
08.03.2018 17:00 6,6 C 5,6 C 4,4 C 87 % 0 lf 997,5 hPa 0,0 l/m 0 min 0 min 70 W/m 24,8 km/h (4 Bft) 97,87 %
08.03.2018 17:02 6,6 C 5,6 C 4,4 C 87 % 0 lf 997,6 hPa 0,0 l/m 0 min 0 min 80 W/m 22,5 km/h (4 Bft) 95,74 %
08.03.2018 17:04 6,5 C 5,6 C 4,4 C 87 % 0 lf 997,5 hPa 0,0 l/m 0 min 0 min 99 W/m 33,8 km/h (5 Bft) 97,83 %
08.03.2018 17:06 6,5 C 5,6 C 4,4 C 87 % 0 lf 997,5 hPa 0,0 l/m 2 min 0 min 131 W/m 22,5 km/h (4 Bft) 100,00 %
08.03.2018 17:08 6,6 C 6,1 C 5,0 C 87 % 0 lf 997,7 hPa 0,0 l/m 2 min 0 min 118 W/m 33,8 km/h (5 Bft) 97,87 %
08.03.2018 17:10 6,6 C 6,1 C 5,0 C 87 % 0 lf 997,6 hPa 0,0 l/m 2 min 0 min 133 W/m 40,6 km/h (6 Bft) 97,87 %
08.03.2018 17:12 6,6 C 6,1 C 5,0 C 86 % 0 lf 997,6 hPa 0,0 l/m 2 min 0 min 203 W/m 31,5 km/h (5 Bft) 97,87 %
08.03.2018 17:14 6,6 C 6,7 C 5,0 C 86 % 0 lf 997,6 hPa 0,0 l/m 2 min 0 min 210 W/m 24,8 km/h (4 Bft) 97,87 %
08.03.2018 17:16 6,6 C 6,7 C 5,0 C 86 % 0 lf 997,7 hPa 0,0 l/m 2 min 0 min 185 W/m 22,5 km/h (4 Bft) 97,83 %
08.03.2018 17:18 6,7 C 6,7 C 5,0 C 86 % 0 lf 997,6 hPa 0,0 l/m 2 min 0 min 147 W/m 29,3 km/h (5 Bft) 97,87 %
08.03.2018 17:20 6,7 C 7,2 C 4,4 C 86 % 0 lf 997,6 hPa 0,0 l/m 2 min 0 min 131 W/m 22,5 km/h (4 Bft) 98,31 %
08.03.2018 17:22 6,7 C 7,2 C 4,4 C 86 % 0 lf 997,6 hPa 0,0 l/m 2 min 0 min 111 W/m 18,0 km/h (3 Bft) 94,29 %
08.03.2018 17:24 6,7 C 7,2 C 4,4 C 86 % 0 lf 997,8 hPa 0,0 l/m 2 min 0 min 114 W/m 45,1 km/h (6 Bft) 97,87 %
08.03.2018 17:26 6,7 C 7,2 C 4,4 C 85 % 0 lf 997,8 hPa 0,0 l/m 2 min 0 min 100 W/m 29,3 km/h (5 Bft) 97,83 %
08.03.2018 17:28 6,7 C 7,2 C 4,4 C 85 % 0 lf 997,7 hPa 0,0 l/m 2 min 0 min 87 W/m 22,5 km/h (4 Bft) 95,74 %
08.03.2018 17:30 6,7 C 6,7 C 4,4 C 85 % 0 lf 997,7 hPa 0,0 l/m 2 min 0 min 74 W/m 27,0 km/h (4 Bft) 95,74 %
08.03.2018 17:32 6,7 C 6,7 C 4,4 C 85 % 0 lf 997,7 hPa 0,0 l/m 0 min 0 min 64 W/m 38,3 km/h (5 Bft) 100,00 %
08.03.2018 17:34 6,7 C 6,7 C 3,9 C 85 % 0 lf 997,7 hPa 0,0 l/m 0 min 0 min 58 W/m 33,8 km/h (5 Bft) 95,65 %
08.03.2018 17:36 6,7 C 6,7 C 3,9 C 85 % 0 lf 997,7 hPa 0,0 l/m 0 min 0 min 51 W/m 24,8 km/h (4 Bft) 95,74 %
08.03.2018 17:38 6,7 C 6,7 C 3,9 C 84 % 0 lf 997,8 hPa 0,0 l/m 0 min 0 min 46 W/m 27,0 km/h (4 Bft) 100,00 %
08.03.2018 17:40 6,7 C 6,7 C 3,9 C 84 % 0 lf 997,8 hPa 0,0 l/m 0 min 0 min 40 W/m 29,3 km/h (5 Bft) 97,87 %
08.03.2018 17:42 6,7 C 6,7 C 3,9 C 84 % 0 lf 997,9 hPa 0,0 l/m 0 min 0 min 36 W/m 29,3 km/h (5 Bft) 97,87 %
08.03.2018 17:44 6,7 C 6,7 C 3,9 C 84 % 0 lf 997,8 hPa 0,0 l/m 0 min 0 min 33 W/m 29,3 km/h (5 Bft) 97,87 %
08.03.2018 17:46 6,6 C 6,7 C 3,9 C 84 % 0 lf 997,8 hPa 0,0 l/m 0 min 0 min 31 W/m 40,6 km/h (6 Bft) 97,83 %
08.03.2018 17:48 6,6 C 6,1 C 3,9 C 84 % 0 lf 997,8 hPa 0,0 l/m 0 min 0 min 29 W/m 33,8 km/h (5 Bft) 100,00 %
08.03.2018 17:50 6,6 C 6,1 C 3,9 C 84 % 0 lf 997,9 hPa 0,0 l/m 0 min 0 min 27 W/m 24,8 km/h (4 Bft) 100,00 %
08.03.2018 17:52 6,6 C 6,1 C 3,9 C 84 % 0 lf 997,9 hPa 0,0 l/m 0 min 0 min 26 W/m 27,0 km/h (4 Bft) 97,14 %
08.03.2018 17:54 6,5 C 6,1 C 3,3 C 84 % 0 lf 997,9 hPa 0,0 l/m 0 min 0 min 25 W/m 24,8 km/h (4 Bft) 100,00 %
08.03.2018 17:56 6,4 C 6,1 C 3,3 C 84 % 0 lf 997,9 hPa 0,0 l/m 0 min 0 min 25 W/m 33,8 km/h (5 Bft) 100,00 %
08.03.2018 17:58 6,4 C 6,1 C 3,3 C 84 % 0 lf 998,0 hPa 0,0 l/m 0 min 0 min 23 W/m 31,5 km/h (5 Bft) 95,74 %
08.03.2018 18:00 6,4 C 6,1 C 3,3 C 84 % 0 lf 997,9 hPa 0,0 l/m 0 min 0 min 22 W/m 29,3 km/h (5 Bft) 97,87 %
08.03.2018 18:02 6,4 C 6,1 C 3,3 C 83 % 0 lf 997,9 hPa 0,0 l/m 0 min 0 min 21 W/m 24,8 km/h (4 Bft) 95,74 %
08.03.2018 18:04 6,4 C 6,1 C 3,3 C 83 % 0 lf 997,9 hPa 0,0 l/m 0 min 0 min 19 W/m 27,0 km/h (4 Bft) 93,62 %
08.03.2018 18:06 6,4 C 6,1 C 3,3 C 83 % 0 lf 997,9 hPa 0,0 l/m 0 min 0 min 18 W/m 15,8 km/h (3 Bft) 100,00 %
08.03.2018 18:08 6,3 C 6,1 C 3,3 C 83 % 0 lf 997,9 hPa 0,0 l/m 0 min 0 min 16 W/m 24,8 km/h (4 Bft) 97,87 %
08.03.2018 18:10 6,3 C 6,1 C 3,3 C 83 % 0 lf 997,9 hPa 0,0 l/m 0 min 0 min 15 W/m 24,8 km/h (4 Bft) 93,62 %
08.03.2018 18:12 6,3 C 5,6 C 3,3 C 84 % 0 lf 997,9 hPa 0,0 l/m 0 min 0 min 13 W/m 18,0 km/h (3 Bft) 95,74 %
08.03.2018 18:14 6,2 C 5,6 C 3,3 C 84 % 0 lf 997,9 hPa 0,0 l/m 0 min 0 min 12 W/m 27,0 km/h (4 Bft) 98,04 %
08.03.2018 18:16 6,2 C 5,6 C 3,3 C 84 % 0 lf 997,9 hPa 0,0 l/m 0 min 0 min 12 W/m 22,5 km/h (4 Bft) 93,62 %
08.03.2018 18:18 6,2 C 5,6 C 3,3 C 84 % 0 lf 997,9 hPa 0,0 l/m 0 min 0 min 11 W/m 24,8 km/h (4 Bft) 95,65 %
08.03.2018 18:20 6,1 C 5,6 C 3,3 C 84 % 0 lf 998,0 hPa 0,0 l/m 0 min 0 min 10 W/m 22,5 km/h (4 Bft) 93,62 %
08.03.2018 18:22 6,1 C 5,6 C 3,3 C 84 % 0 lf 998,0 hPa 0,0 l/m 0 min 0 min 9 W/m 24,8 km/h (4 Bft) 97,87 %
08.03.2018 18:24 6,1 C 5,6 C 3,3 C 84 % 0 lf 998,0 hPa 0,0 l/m 0 min 0 min 8 W/m 29,3 km/h (5 Bft) 97,87 %
08.03.2018 18:26 6,0 C 5,6 C 3,3 C 84 % 0 lf 998,0 hPa 0,0 l/m 0 min 0 min 7 W/m 36,0 km/h (5 Bft) 93,62 %
08.03.2018 18:28 6,0 C 5,6 C 3,3 C 84 % 0 lf 998,0 hPa 0,0 l/m 0 min 0 min 7 W/m 22,5 km/h (4 Bft) 95,74 %
08.03.2018 18:30 6,0 C 5,6 C 3,3 C 84 % 0 lf 998,1 hPa 0,0 l/m 0 min 0 min 5 W/m 27,0 km/h (4 Bft) 95,65 %
08.03.2018 18:32 5,9 C 5,6 C 3,3 C 84 % 0 lf 998,1 hPa 0,0 l/m 0 min 0 min 5 W/m 24,8 km/h (4 Bft) 95,92 %
08.03.2018 18:34 5,9 C 5,6 C 3,3 C 85 % 0 lf 998,1 hPa 0,0 l/m 0 min 0 min 5 W/m 24,8 km/h (4 Bft) 97,87 %
08.03.2018 18:36 5,9 C 5,6 C 3,3 C 85 % 0 lf 998,1 hPa 0,0 l/m 0 min 0 min 3 W/m 31,5 km/h (5 Bft) 97,83 %
08.03.2018 18:38 5,9 C 5,6 C 3,3 C 85 % 0 lf 998,0 hPa 0,0 l/m 0 min 0 min 0 W/m 29,3 km/h (5 Bft) 93,62 %
08.03.2018 18:40 5,8 C 5,6 C 3,3 C 85 % 0 lf 998,1 hPa 0,0 l/m 0 min 0 min 0 W/m 38,3 km/h (5 Bft) 95,74 %
08.03.2018 18:42 5,8 C 5,6 C 3,3 C 85 % 0 lf 998,2 hPa 0,0 l/m 0 min 0 min 0 W/m 36,0 km/h (5 Bft) 97,87 %
08.03.2018 18:44 5,8 C 5,6 C 3,3 C 85 % 0 lf 998,2 hPa 0,0 l/m 0 min 0 min 0 W/m 27,0 km/h (4 Bft) 91,49 %
08.03.2018 18:46 5,8 C 5,6 C 3,3 C 85 % 0 lf 998,2 hPa 0,0 l/m 0 min 0 min 0 W/m 29,3 km/h (5 Bft) 95,65 %
08.03.2018 18:48 5,8 C 5,6 C 3,3 C 85 % 0 lf 998,1 hPa 0,0 l/m 0 min 0 min 0 W/m 31,5 km/h (5 Bft) 93,62 %
08.03.2018 18:50 5,8 C 5,6 C 3,3 C 85 % 0 lf 998,2 hPa 0,0 l/m 0 min 0 min 0 W/m 29,3 km/h (5 Bft) 93,62 %
08.03.2018 18:52 5,8 C 5,6 C 3,3 C 85 % 0 lf 998,2 hPa 0,0 l/m 0 min 0 min 0 W/m 29,3 km/h (5 Bft) 93,62 %
08.03.2018 18:54 5,7 C 5,6 C 3,3 C 85 % 0 lf 998,1 hPa 0,0 l/m 0 min 0 min 0 W/m 38,3 km/h (5 Bft) 91,49 %
08.03.2018 18:56 5,7 C 5,0 C 2,8 C 85 % 0 lf 998,2 hPa 0,0 l/m 0 min 0 min 0 W/m 22,5 km/h (4 Bft) 89,36 %
08.03.2018 18:58 5,7 C 5,0 C 3,3 C 85 % 0 lf 998,3 hPa 0,0 l/m 0 min 0 min 0 W/m 29,3 km/h (5 Bft) 93,48 %
08.03.2018 19:00 5,7 C 5,0 C 2,8 C 85 % 0 lf 998,3 hPa 0,0 l/m 0 min 0 min 0 W/m 27,0 km/h (4 Bft) 95,74 %
08.03.2018 19:02 5,7 C 5,0 C 2,8 C 85 % 0 lf 998,4 hPa 0,0 l/m 0 min 0 min 0 W/m 29,3 km/h (5 Bft) 91,49 %
08.03.2018 19:04 5,6 C 5,0 C 2,8 C 86 % 0 lf 998,4 hPa 0,0 l/m 0 min 0 min 0 W/m 40,6 km/h (6 Bft) 95,74 %
08.03.2018 19:06 5,6 C 5,0 C 3,3 C 86 % 0 lf 998,4 hPa 0,0 l/m 0 min 0 min 0 W/m 31,5 km/h (5 Bft) 95,74 %
08.03.2018 19:08 5,6 C 5,0 C 2,8 C 86 % 0 lf 998,4 hPa 0,0 l/m 0 min 0 min 0 W/m 38,3 km/h (5 Bft) 89,36 %
08.03.2018 19:10 5,6 C 5,0 C 2,8 C 86 % 0 lf 998,5 hPa 0,0 l/m 0 min 0 min 0 W/m 27,0 km/h (4 Bft) 86,96 %
08.03.2018 19:12 5,6 C 5,0 C 2,8 C 86 % 0 lf 998,5 hPa 0,0 l/m 0 min 0 min 0 W/m 31,5 km/h (5 Bft) 91,49 %
08.03.2018 19:14 5,5 C 5,0 C 2,8 C 86 % 0 lf 998,6 hPa 0,0 l/m 0 min 0 min 0 W/m 36,0 km/h (5 Bft) 93,62 %
08.03.2018 19:16 5,5 C 5,0 C 2,8 C 86 % 0 lf 998,6 hPa 0,0 l/m 0 min 0 min 0 W/m 42,8 km/h (6 Bft) 91,49 %
08.03.2018 19:18 5,5 C 5,0 C 2,8 C 86 % 0 lf 998,6 hPa 0,0 l/m 0 min 0 min 0 W/m 38,3 km/h (5 Bft) 93,62 %
08.03.2018 19:20 5,5 C 5,0 C 2,8 C 87 % 0 lf 998,7 hPa 0,0 l/m 0 min 0 min 0 W/m 40,6 km/h (6 Bft) 93,62 %
08.03.2018 19:22 5,4 C 5,0 C 2,8 C 86 % 0 lf 998,8 hPa 0,0 l/m 0 min 0 min 0 W/m 27,0 km/h (4 Bft) 93,48 %
08.03.2018 19:24 5,4 C 5,0 C 2,8 C 87 % 0 lf 998,8 hPa 0,0 l/m 0 min 0 min 0 W/m 36,0 km/h (5 Bft) 91,49 %
08.03.2018 19:26 5,4 C 5,0 C 2,8 C 87 % 0 lf 998,8 hPa 0,0 l/m 0 min 0 min 0 W/m 33,8 km/h (5 Bft) 95,74 %
08.03.2018 19:28 5,4 C 5,0 C 2,8 C 87 % 0 lf 998,8 hPa 0,0 l/m 0 min 0 min 0 W/m 29,3 km/h (5 Bft) 95,74 %
08.03.2018 19:30 5,4 C 5,0 C 2,8 C 87 % 0 lf 998,8 hPa 0,0 l/m 0 min 0 min 0 W/m 31,5 km/h (5 Bft) 95,65 %
08.03.2018 19:32 5,4 C 5,0 C 2,8 C 87 % 0 lf 998,8 hPa 0,0 l/m 0 min 0 min 0 W/m 38,3 km/h (5 Bft) 93,55 %
08.03.2018 19:34 5,4 C 5,0 C 2,8 C 87 % 0 lf 998,9 hPa 0,0 l/m 0 min 0 min 0 W/m 33,8 km/h (5 Bft) 95,74 %
08.03.2018 19:36 5,4 C 5,0 C 2,8 C 87 % 0 lf 999,0 hPa 0,0 l/m 0 min 0 min 0 W/m 20,3 km/h (4 Bft) 97,83 %
08.03.2018 19:38 5,4 C 5,0 C 2,8 C 87 % 0 lf 999,0 hPa 0,0 l/m 0 min 0 min 0 W/m 33,8 km/h (5 Bft) 97,87 %
08.03.2018 19:40 5,3 C 5,0 C 2,8 C 87 % 0 lf 999,1 hPa 0,0 l/m 0 min 0 min 0 W/m 33,8 km/h (5 Bft) 97,87 %
08.03.2018 19:42 5,3 C 5,0 C 2,8 C 87 % 0 lf 999,1 hPa 0,0 l/m 0 min 0 min 0 W/m 22,5 km/h (4 Bft) 95,74 %
08.03.2018 19:44 5,3 C 5,0 C 2,8 C 87 % 0 lf 999,2 hPa 0,0 l/m 0 min 0 min 0 W/m 29,3 km/h (5 Bft) 95,74 %
08.03.2018 19:46 5,3 C 5,0 C 2,8 C 87 % 0 lf 999,3 hPa 0,0 l/m 0 min 0 min 0 W/m 22,5 km/h (4 Bft) 95,65 %
08.03.2018 19:48 5,3 C 5,0 C 2,8 C 87 % 0 lf 999,3 hPa 0,0 l/m 0 min 0 min 0 W/m 29,3 km/h (5 Bft) 100,00 %
08.03.2018 19:50 5,3 C 5,0 C 3,3 C 87 % 0 lf 999,5 hPa 0,0 l/m 0 min 0 min 0 W/m 27,0 km/h (4 Bft) 96,61 %
08.03.2018 19:52 5,3 C 5,0 C 2,8 C 88 % 0 lf 999,4 hPa 0,0 l/m 0 min 0 min 0 W/m 27,0 km/h (4 Bft) 94,29 %
08.03.2018 19:54 5,3 C 5,0 C 3,3 C 88 % 0 lf 999,5 hPa 0,0 l/m 0 min 0 min 0 W/m 38,3 km/h (5 Bft) 97,87 %
08.03.2018 19:56 5,3 C 5,0 C 3,3 C 88 % 0 lf 999,5 hPa 0,0 l/m 0 min 0 min 0 W/m 29,3 km/h (5 Bft) 97,87 %
08.03.2018 19:58 5,3 C 5,0 C 3,3 C 88 % 0 lf 999,6 hPa 0,0 l/m 0 min 0 min 0 W/m 33,8 km/h (5 Bft) 97,87 %
08.03.2018 20:00 5,3 C 5,0 C 3,3 C 88 % 0 lf 999,5 hPa 0,0 l/m 0 min 0 min 0 W/m 27,0 km/h (4 Bft) 100,00 %
08.03.2018 20:02 5,3 C 5,0 C 3,3 C 88 % 0 lf 999,6 hPa 0,0 l/m 0 min 0 min 0 W/m 24,8 km/h (4 Bft) 100,00 %
08.03.2018 20:04 5,3 C 5,0 C 3,3 C 88 % 0 lf 999,8 hPa 0,0 l/m 0 min 0 min 0 W/m 31,5 km/h (5 Bft) 100,00 %
08.03.2018 20:06 5,3 C 5,0 C 3,3 C 88 % 0 lf 999,8 hPa 0,0 l/m 0 min 0 min 0 W/m 27,0 km/h (4 Bft) 100,00 %
08.03.2018 20:08 5,3 C 5,0 C 3,3 C 88 % 0 lf 1000,1 hPa 0,0 l/m 0 min 0 min 0 W/m 22,5 km/h (4 Bft) 100,00 %
08.03.2018 20:10 5,3 C 5,0 C 3,3 C 88 % 0 lf 1000,1 hPa 0,0 l/m 0 min 0 min 0 W/m 18,0 km/h (3 Bft) 100,00 %
08.03.2018 20:12 5,3 C 5,0 C 3,3 C 88 % 15 lf 1000,2 hPa 0,0 l/m 0 min 2 min 0 W/m 27,0 km/h (4 Bft) 97,87 %
08.03.2018 20:14 5,3 C 5,0 C 2,8 C 89 % 15 lf 1000,2 hPa 0,0 l/m 0 min 2 min 0 W/m 24,8 km/h (4 Bft) 100,00 %
08.03.2018 20:16 5,4 C 4,4 C 2,8 C 89 % 15 lf 1000,1 hPa 0,0 l/m 0 min 2 min 0 W/m 29,3 km/h (5 Bft) 100,00 %
08.03.2018 20:18 5,4 C 4,4 C 3,3 C 89 % 15 lf 1000,2 hPa 0,2 l/m 0 min 2 min 0 W/m 18,0 km/h (3 Bft) 100,00 %
08.03.2018 20:20 5,4 C 4,4 C 2,8 C 89 % 15 lf 1000,2 hPa 0,0 l/m 0 min 0 min 0 W/m 15,8 km/h (3 Bft) 98,28 %
08.03.2018 20:22 5,4 C 4,4 C 2,8 C 89 % 15 lf 1000,2 hPa 0,0 l/m 0 min 2 min 0 W/m 15,8 km/h (3 Bft) 100,00 %
08.03.2018 20:24 5,3 C 4,4 C 2,8 C 89 % 15 lf 1000,2 hPa 0,0 l/m 0 min 0 min 0 W/m 18,0 km/h (3 Bft) 100,00 %
08.03.2018 20:26 5,3 C 4,4 C 2,8 C 89 % 15 lf 1000,2 hPa 0,0 l/m 0 min 0 min 0 W/m 20,3 km/h (4 Bft) 100,00 %
08.03.2018 20:28 5,3 C 4,4 C 2,8 C 90 % 15 lf 1000,2 hPa 0,0 l/m 0 min 0 min 0 W/m 24,8 km/h (4 Bft) 100,00 %
08.03.2018 20:30 5,3 C 4,4 C 2,8 C 90 % 15 lf 1000,4 hPa 0,0 l/m 0 min 0 min 0 W/m 31,5 km/h (5 Bft) 100,00 %
08.03.2018 20:32 5,3 C 4,4 C 2,8 C 90 % 15 lf 1000,4 hPa 0,0 l/m 0 min 0 min 0 W/m 20,3 km/h (4 Bft) 100,00 %
08.03.2018 20:34 5,2 C 4,4 C 3,3 C 90 % 15 lf 1000,2 hPa 0,0 l/m 0 min 2 min 0 W/m 24,8 km/h (4 Bft) 97,83 %
08.03.2018 20:36 5,2 C 4,4 C 3,3 C 90 % 15 lf 1000,2 hPa 0,0 l/m 0 min 0 min 0 W/m 29,3 km/h (5 Bft) 100,00 %
08.03.2018 20:38 5,2 C 4,4 C 3,3 C 90 % 15 lf 1000,3 hPa 0,0 l/m 0 min 0 min 0 W/m 36,0 km/h (5 Bft) 100,00 %
08.03.2018 20:40 5,2 C 4,4 C 3,3 C 90 % 15 lf 1000,3 hPa 0,0 l/m 0 min 0 min 0 W/m 40,6 km/h (6 Bft) 100,00 %
08.03.2018 20:42 5,2 C 4,4 C 2,8 C 90 % 15 lf 1000,3 hPa 0,0 l/m 0 min 0 min 0 W/m 24,8 km/h (4 Bft) 97,87 %
08.03.2018 20:44 5,2 C 4,4 C 2,8 C 90 % 15 lf 1000,3 hPa 0,0 l/m 0 min 0 min 0 W/m 27,0 km/h (4 Bft) 93,62 %
08.03.2018 20:46 5,2 C 4,4 C 2,8 C 90 % 15 lf 1000,4 hPa 0,0 l/m 0 min 0 min 0 W/m 24,8 km/h (4 Bft) 97,83 %
08.03.2018 20:48 5,2 C 4,4 C 2,8 C 90 % 15 lf 1000,4 hPa 0,2 l/m 0 min 0 min 0 W/m 31,5 km/h (5 Bft) 100,00 %
08.03.2018 20:50 5,2 C 4,4 C 2,8 C 90 % 15 lf 1000,5 hPa 0,0 l/m 0 min 0 min 0 W/m 20,3 km/h (4 Bft) 100,00 %
08.03.2018 20:52 5,2 C 4,4 C 2,8 C 90 % 15 lf 1000,5 hPa 0,0 l/m 0 min 0 min 0 W/m 24,8 km/h (4 Bft) 97,87 %
08.03.2018 20:54 5,1 C 4,4 C 2,8 C 90 % 15 lf 1000,5 hPa 0,0 l/m 0 min 0 min 0 W/m 24,8 km/h (4 Bft) 93,62 %
08.03.2018 20:56 5,1 C 4,4 C 2,8 C 90 % 15 lf 1000,6 hPa 0,0 l/m 0 min 0 min 0 W/m 22,5 km/h (4 Bft) 97,87 %
08.03.2018 20:58 5,1 C 3,9 C 2,2 C 90 % 15 lf 1000,6 hPa 0,0 l/m 0 min 0 min 0 W/m 18,0 km/h (3 Bft) 97,83 %
08.03.2018 21:00 5,1 C 3,9 C 2,2 C 90 % 15 lf 1000,7 hPa 0,0 l/m 0 min 0 min 0 W/m 18,0 km/h (3 Bft) 95,74 %
08.03.2018 21:02 5,0 C 3,9 C 2,2 C 90 % 15 lf 1000,7 hPa 0,0 l/m 0 min 0 min 0 W/m 18,0 km/h (3 Bft) 93,62 %
08.03.2018 21:04 5,0 C 3,9 C 2,2 C 90 % 15 lf 1000,7 hPa 0,0 l/m 0 min 0 min 0 W/m 20,3 km/h (4 Bft) 91,49 %
08.03.2018 21:06 4,9 C 4,4 C 2,2 C 90 % 15 lf 1000,8 hPa 0,0 l/m 0 min 0 min 0 W/m 27,0 km/h (4 Bft) 93,62 %
08.03.2018 21:08 4,9 C 4,4 C 2,2 C 90 % 15 lf 1000,8 hPa 0,0 l/m 0 min 0 min 0 W/m 22,5 km/h (4 Bft) 95,74 %
08.03.2018 21:10 4,9 C 3,9 C 2,2 C 90 % 15 lf 1000,8 hPa 0,0 l/m 0 min 0 min 0 W/m 20,3 km/h (4 Bft) 95,74 %
08.03.2018 21:12 4,9 C 4,4 C 2,2 C 90 % 15 lf 1000,8 hPa 0,0 l/m 0 min 0 min 0 W/m 20,3 km/h (4 Bft) 93,62 %
08.03.2018 21:14 4,8 C 3,9 C 2,2 C 90 % 15 lf 1000,8 hPa 0,0 l/m 0 min 0 min 0 W/m 20,3 km/h (4 Bft) 91,30 %
08.03.2018 21:16 4,8 C 3,9 C 2,2 C 90 % 15 lf 1000,9 hPa 0,0 l/m 0 min 0 min 0 W/m 22,5 km/h (4 Bft) 95,74 %
08.03.2018 21:18 4,8 C 4,4 C 2,2 C 90 % 15 lf 1000,9 hPa 0,0 l/m 0 min 0 min 0 W/m 22,5 km/h (4 Bft) 97,87 %
08.03.2018 21:20 4,8 C 4,4 C 2,2 C 90 % 15 lf 1000,9 hPa 0,0 l/m 0 min 0 min 0 W/m 22,5 km/h (4 Bft) 95,74 %
08.03.2018 21:22 4,8 C 4,4 C 2,2 C 90 % 15 lf 1000,9 hPa 0,0 l/m 0 min 0 min 0 W/m 24,8 km/h (4 Bft) 91,49 %
08.03.2018 21:24 4,8 C 3,9 C 2,2 C 90 % 15 lf 1001,0 hPa 0,0 l/m 0 min 0 min 0 W/m 24,8 km/h (4 Bft) 93,62 %
08.03.2018 21:26 4,8 C 4,4 C 2,2 C 90 % 15 lf 1001,0 hPa 0,0 l/m 0 min 0 min 0 W/m 24,8 km/h (4 Bft) 93,48 %
08.03.2018 21:28 4,8 C 3,9 C 2,2 C 90 % 15 lf 1001,0 hPa 0,0 l/m 0 min 0 min 0 W/m 18,0 km/h (3 Bft) 91,49 %
08.03.2018 21:30 4,7 C 3,9 C 2,2 C 90 % 15 lf 1001,0 hPa 0,0 l/m 0 min 0 min 0 W/m 22,5 km/h (4 Bft) 95,74 %
08.03.2018 21:32 4,7 C 3,9 C 2,2 C 90 % 15 lf 1001,0 hPa 0,0 l/m 0 min 0 min 0 W/m 27,0 km/h (4 Bft) 95,74 %
08.03.2018 21:34 4,7 C 4,4 C 2,2 C 90 % 15 lf 1001,2 hPa 0,0 l/m 0 min 0 min 0 W/m 27,0 km/h (4 Bft) 95,74 %
08.03.2018 21:36 4,7 C 4,4 C 2,2 C 90 % 15 lf 1001,2 hPa 0,0 l/m 0 min 0 min 0 W/m 29,3 km/h (5 Bft) 93,62 %
08.03.2018 21:38 4,7 C 4,4 C 2,2 C 90 % 15 lf 1001,2 hPa 0,0 l/m 0 min 0 min 0 W/m 20,3 km/h (4 Bft) 95,65 %
08.03.2018 21:40 4,7 C 4,4 C 2,2 C 90 % 15 lf 1001,2 hPa 0,0 l/m 0 min 0 min 0 W/m 22,5 km/h (4 Bft) 93,62 %
08.03.2018 21:42 4,7 C 4,4 C 2,2 C 90 % 15 lf 1001,3 hPa 0,0 l/m 0 min 0 min 0 W/m 31,5 km/h (5 Bft) 95,74 %
08.03.2018 21:44 4,7 C 4,4 C 2,2 C 90 % 15 lf 1001,3 hPa 0,0 l/m 0 min 0 min 0 W/m 27,0 km/h (4 Bft) 89,36 %
08.03.2018 21:46 4,7 C 4,4 C 2,2 C 90 % 14 lf 1001,3 hPa 0,0 l/m 0 min 0 min 0 W/m 24,8 km/h (4 Bft) 97,87 %
08.03.2018 21:48 4,7 C 4,4 C 2,2 C 90 % 12 lf 1001,3 hPa 0,0 l/m 0 min 0 min 0 W/m 24,8 km/h (4 Bft) 95,65 %
08.03.2018 21:50 4,7 C 4,4 C 2,2 C 90 % 11 lf 1001,3 hPa 0,0 l/m 0 min 0 min 0 W/m 22,5 km/h (4 Bft) 97,87 %
08.03.2018 21:52 4,7 C 4,4 C 2,2 C 90 % 10 lf 1001,4 hPa 0,0 l/m 0 min 0 min 0 W/m 22,5 km/h (4 Bft) 93,62 %
08.03.2018 21:54 4,7 C 3,9 C 2,2 C 90 % 8 lf 1001,3 hPa 0,0 l/m 0 min 0 min 0 W/m 22,5 km/h (4 Bft) 97,87 %
08.03.2018 21:56 4,7 C 3,9 C 2,2 C 89 % 4 lf 1001,4 hPa 0,0 l/m 0 min 0 min 0 W/m 24,8 km/h (4 Bft) 97,87 %
08.03.2018 21:58 4,7 C 4,4 C 2,2 C 89 % 3 lf 1001,4 hPa 0,0 l/m 0 min 0 min 0 W/m 29,3 km/h (5 Bft) 97,87 %
08.03.2018 22:00 4,7 C 4,4 C 2,2 C 89 % 2 lf 1001,4 hPa 0,0 l/m 0 min 0 min 0 W/m 24,8 km/h (4 Bft) 95,65 %
08.03.2018 22:02 4,7 C 3,9 C 2,2 C 89 % 1 lf 1001,4 hPa 0,0 l/m 0 min 0 min 0 W/m 20,3 km/h (4 Bft) 93,62 %
08.03.2018 22:04 4,6 C 3,9 C 2,2 C 89 % 1 lf 1001,5 hPa 0,0 l/m 0 min 0 min 0 W/m 29,3 km/h (5 Bft) 97,92 %
08.03.2018 22:06 4,6 C 3,9 C 2,2 C 89 % 1 lf 1001,4 hPa 0,0 l/m 0 min 0 min 0 W/m 27,0 km/h (4 Bft) 95,65 %
08.03.2018 22:08 4,6 C 3,9 C 2,2 C 89 % 1 lf 1001,4 hPa 0,0 l/m 0 min 0 min 0 W/m 22,5 km/h (4 Bft) 100,00 %
08.03.2018 22:10 4,6 C 3,9 C 2,2 C 89 % 0 lf 1001,4 hPa 0,0 l/m 0 min 0 min 0 W/m 24,8 km/h (4 Bft) 100,00 %
08.03.2018 22:12 4,6 C 3,9 C 2,2 C 89 % 0 lf 1001,5 hPa 0,0 l/m 0 min 0 min 0 W/m 24,8 km/h (4 Bft) 95,74 %
08.03.2018 22:14 4,6 C 3,9 C 2,2 C 89 % 0 lf 1001,5 hPa 0,0 l/m 0 min 0 min 0 W/m 27,0 km/h (4 Bft) 100,00 %
08.03.2018 22:16 4,6 C 3,9 C 2,2 C 89 % 0 lf 1001,5 hPa 0,0 l/m 0 min 0 min 0 W/m 27,0 km/h (4 Bft) 97,87 %
08.03.2018 22:18 4,6 C 3,9 C 2,2 C 88 % 0 lf 1001,6 hPa 0,0 l/m 0 min 0 min 0 W/m 27,0 km/h (4 Bft) 100,00 %
08.03.2018 22:20 4,6 C 3,9 C 2,2 C 88 % 0 lf 1001,6 hPa 0,0 l/m 0 min 0 min 0 W/m 29,3 km/h (5 Bft) 100,00 %
08.03.2018 22:22 4,5 C 3,9 C 2,2 C 88 % 0 lf 1001,6 hPa 0,0 l/m 0 min 0 min 0 W/m 27,0 km/h (4 Bft) 95,74 %
08.03.2018 22:24 4,5 C 3,9 C 1,7 C 88 % 0 lf 1001,7 hPa 0,0 l/m 0 min 0 min 0 W/m 24,8 km/h (4 Bft) 97,87 %
08.03.2018 22:26 4,5 C 3,9 C 1,7 C 88 % 0 lf 1001,8 hPa 0,0 l/m 0 min 0 min 0 W/m 24,8 km/h (4 Bft) 100,00 %
08.03.2018 22:28 4,5 C 3,9 C 1,7 C 88 % 0 lf 1001,8 hPa 0,0 l/m 0 min 0 min 0 W/m 27,0 km/h (4 Bft) 100,00 %
08.03.2018 22:30 4,5 C 3,9 C 1,7 C 88 % 0 lf 1001,8 hPa 0,0 l/m 0 min 0 min 0 W/m 29,3 km/h (5 Bft) 100,00 %
08.03.2018 22:32 4,5 C 3,9 C 1,7 C 88 % 0 lf 1002,0 hPa 0,0 l/m 0 min 0 min 0 W/m 29,3 km/h (5 Bft) 100,00 %
08.03.2018 22:34 4,4 C 3,9 C 1,7 C 88 % 0 lf 1001,9 hPa 0,0 l/m 0 min 0 min 0 W/m 27,0 km/h (4 Bft) 100,00 %
08.03.2018 22:36 4,4 C 3,9 C 1,7 C 88 % 0 lf 1001,9 hPa 0,0 l/m 0 min 0 min 0 W/m 29,3 km/h (5 Bft) 97,87 %
08.03.2018 22:38 4,4 C 3,9 C 1,7 C 88 % 0 lf 1002,0 hPa 0,0 l/m 0 min 0 min 0 W/m 27,0 km/h (4 Bft) 100,00 %
08.03.2018 22:40 4,4 C 3,9 C 1,7 C 88 % 0 lf 1002,0 hPa 0,0 l/m 0 min 0 min 0 W/m 27,0 km/h (4 Bft) 100,00 %
08.03.2018 22:42 4,4 C 3,9 C 1,7 C 88 % 0 lf 1002,0 hPa 0,0 l/m 0 min 0 min 0 W/m 24,8 km/h (4 Bft) 91,30 %
08.03.2018 22:44 4,4 C 3,9 C 1,7 C 87 % 0 lf 1002,0 hPa 0,0 l/m 0 min 0 min 0 W/m 24,8 km/h (4 Bft) 97,87 %
08.03.2018 22:46 4,4 C 3,9 C 1,7 C 87 % 0 lf 1002,1 hPa 0,0 l/m 0 min 0 min 0 W/m 22,5 km/h (4 Bft) 97,87 %
08.03.2018 22:48 4,4 C 3,9 C 1,7 C 87 % 0 lf 1002,1 hPa 0,0 l/m 0 min 0 min 0 W/m 31,5 km/h (5 Bft) 97,87 %
08.03.2018 22:50 4,4 C 3,9 C 1,7 C 87 % 0 lf 1002,1 hPa 0,0 l/m 0 min 0 min 0 W/m 24,8 km/h (4 Bft) 95,74 %
08.03.2018 22:52 4,3 C 3,9 C 1,7 C 87 % 0 lf 1002,1 hPa 0,0 l/m 0 min 0 min 0 W/m 27,0 km/h (4 Bft) 95,74 %
08.03.2018 22:54 4,3 C 3,9 C 1,7 C 87 % 0 lf 1002,2 hPa 0,0 l/m 0 min 0 min 0 W/m 29,3 km/h (5 Bft) 95,65 %
08.03.2018 22:56 4,3 C 3,9 C 1,7 C 87 % 0 lf 1002,2 hPa 0,0 l/m 0 min 0 min 0 W/m 31,5 km/h (5 Bft) 97,87 %
08.03.2018 22:58 4,3 C 3,9 C 1,7 C 87 % 0 lf 1002,2 hPa 0,0 l/m 0 min 0 min 0 W/m 27,0 km/h (4 Bft) 97,87 %
08.03.2018 23:00 4,3 C 3,9 C 1,7 C 87 % 0 lf 1002,2 hPa 0,0 l/m 0 min 0 min 0 W/m 15,8 km/h (3 Bft) 95,74 %
08.03.2018 23:02 4,3 C 3,9 C 1,7 C 87 % 0 lf 1002,3 hPa 0,0 l/m 0 min 0 min 0 W/m 22,5 km/h (4 Bft) 93,62 %
08.03.2018 23:04 4,3 C 3,9 C 1,7 C 87 % 0 lf 1002,4 hPa 0,0 l/m 0 min 0 min 0 W/m 22,5 km/h (4 Bft) 95,65 %
08.03.2018 23:06 4,3 C 3,9 C 1,7 C 87 % 0 lf 1002,4 hPa 0,0 l/m 0 min 0 min 0 W/m 24,8 km/h (4 Bft) 95,74 %
08.03.2018 23:08 4,2 C 3,9 C 1,7 C 87 % 0 lf 1002,4 hPa 0,0 l/m 0 min 0 min 0 W/m 18,0 km/h (3 Bft) 95,74 %
08.03.2018 23:10 4,2 C 3,9 C 1,7 C 87 % 0 lf 1002,4 hPa 0,0 l/m 0 min 0 min 0 W/m 27,0 km/h (4 Bft) 97,87 %
08.03.2018 23:12 4,2 C 3,9 C 1,7 C 87 % 0 lf 1002,4 hPa 0,0 l/m 0 min 0 min 0 W/m 29,3 km/h (5 Bft) 95,74 %
08.03.2018 23:14 4,2 C 3,9 C 1,7 C 87 % 0 lf 1002,4 hPa 0,0 l/m 0 min 0 min 0 W/m 20,3 km/h (4 Bft) 95,74 %
08.03.2018 23:16 4,2 C 3,9 C 1,7 C 87 % 0 lf 1002,4 hPa 0,0 l/m 0 min 0 min 0 W/m 22,5 km/h (4 Bft) 97,87 %
08.03.2018 23:18 4,2 C 3,9 C 1,7 C 87 % 0 lf 1002,4 hPa 0,0 l/m 0 min 0 min 0 W/m 22,5 km/h (4 Bft) 97,83 %
08.03.2018 23:20 4,2 C 3,9 C 1,7 C 87 % 0 lf 1002,4 hPa 0,0 l/m 0 min 0 min 0 W/m 29,3 km/h (5 Bft) 97,87 %
08.03.2018 23:22 4,2 C 3,9 C 1,7 C 87 % 0 lf 1002,4 hPa 0,0 l/m 0 min 0 min 0 W/m 27,0 km/h (4 Bft) 95,74 %
08.03.2018 23:24 4,2 C 3,9 C 1,7 C 87 % 0 lf 1002,4 hPa 0,0 l/m 0 min 0 min 0 W/m 27,0 km/h (4 Bft) 97,87 %
08.03.2018 23:26 4,2 C 3,9 C 1,7 C 87 % 0 lf 1002,5 hPa 0,0 l/m 0 min 0 min 0 W/m 24,8 km/h (4 Bft) 97,87 %
08.03.2018 23:28 4,2 C 3,9 C 1,7 C 87 % 0 lf 1002,5 hPa 0,0 l/m 0 min 0 min 0 W/m 24,8 km/h (4 Bft) 97,83 %
08.03.2018 23:30 4,2 C 3,9 C 1,7 C 87 % 0 lf 1002,5 hPa 0,0 l/m 0 min 0 min 0 W/m 29,3 km/h (5 Bft) 95,74 %
08.03.2018 23:32 4,1 C 3,9 C 1,7 C 87 % 0 lf 1002,5 hPa 0,0 l/m 0 min 0 min 0 W/m 22,5 km/h (4 Bft) 97,87 %
08.03.2018 23:34 4,1 C 3,3 C 1,7 C 87 % 0 lf 1002,6 hPa 0,0 l/m 0 min 0 min 0 W/m 22,5 km/h (4 Bft) 95,74 %
08.03.2018 23:36 4,1 C 3,9 C 1,7 C 87 % 0 lf 1002,5 hPa 0,0 l/m 0 min 0 min 0 W/m 29,3 km/h (5 Bft) 97,87 %
08.03.2018 23:38 4,1 C 3,3 C 1,7 C 87 % 0 lf 1002,6 hPa 0,0 l/m 0 min 0 min 0 W/m 33,8 km/h (5 Bft) 97,87 %
08.03.2018 23:40 4,1 C 3,9 C 1,7 C 87 % 0 lf 1002,6 hPa 0,0 l/m 0 min 0 min 0 W/m 27,0 km/h (4 Bft) 97,83 %
08.03.2018 23:42 4,1 C 3,9 C 1,7 C 87 % 0 lf 1002,6 hPa 0,0 l/m 0 min 0 min 0 W/m 27,0 km/h (4 Bft) 95,74 %
08.03.2018 23:44 4,1 C 3,9 C 1,7 C 88 % 0 lf 1002,5 hPa 0,0 l/m 0 min 0 min 0 W/m 29,3 km/h (5 Bft) 97,87 %
08.03.2018 23:46 4,1 C 3,9 C 1,7 C 88 % 0 lf 1002,6 hPa 0,0 l/m 0 min 0 min 0 W/m 29,3 km/h (5 Bft) 97,87 %
08.03.2018 23:48 4,1 C 3,9 C 1,7 C 88 % 0 lf 1002,6 hPa 0,0 l/m 0 min 0 min 0 W/m 27,0 km/h (4 Bft) 97,87 %
08.03.2018 23:50 4,1 C 3,9 C 1,7 C 88 % 0 lf 1002,6 hPa 0,0 l/m 0 min 0 min 0 W/m 22,5 km/h (4 Bft) 95,74 %
08.03.2018 23:52 4,1 C 3,9 C 1,7 C 88 % 0 lf 1002,6 hPa 0,0 l/m 0 min 0 min 0 W/m 24,8 km/h (4 Bft) 93,48 %
08.03.2018 23:54 4,1 C 3,3 C 1,7 C 88 % 0 lf 1002,6 hPa 0,0 l/m 0 min 0 min 0 W/m 24,8 km/h (4 Bft) 97,87 %
08.03.2018 23:56 4,1 C 3,3 C 1,7 C 88 % 0 lf 1002,7 hPa 0,0 l/m 0 min 0 min 0 W/m 22,5 km/h (4 Bft) 95,74 %
08.03.2018 23:58 4,1 C 3,3 C 1,7 C 88 % 0 lf 1002,6 hPa 0,0 l/m 0 min 0 min 0 W/m 20,3 km/h (4 Bft) 89,36 %
_ Min-Zeit 07:26 05:36 06:10 12:24 08:16 15:50 - - - - 05:44 19:10
Minimum _ 2,1 C 1,7 C -0,6 C 77 % 0 lf 996,7 hPa - - - - 0,0 km/h (0 Bft) 86,96 %
_ Max-Zeit 12:26 11:36 11:36 00:24 00:00 23:56 00:12 08:08 00:07 10:14 16:24 01:00
Maximum _ 9,1 C 10,6 C 9,4 C 96 % 15 lf 1002,7 hPa 0,2 l/m 4 min 3 min 471 W/m 54,1 km/h
S-SW (7 Bft)
100,00 %
Durchschnitt _ 5,3 C 5,1 C 3,5 C 89 % 5 lf 999,5 hPa #4,6 l/m #3:06 h #4:30 h 115 W/m 24,1 km/h (4 Bft) 96,43 %
© 2018 W. Hausmann